GFSGL_sfc_wetblb_000.txt.gz
Wetbulb
56.53 56.85 60.32 60.23 59.99 59.61 58.86 57.28 57.78 57.59 58.11 58.85 59.15 59.51 59.65 59.60 59.63 59.77 59.22 60.00 61.19 61.46 62.22 61.77 60.69 61.20 61.04 60.74 60.97 60.88 60.00 59.80 57.78 59.92 61.62 62.65 61.18 61.40 61.56 60.93 61.10 59.86 58.59
55.98 56.09 58.77 60.32 59.63 59.25 58.50 58.24 58.34 58.12 58.60 59.13 59.95 60.19 60.23 59.68 59.86 60.47 60.21 60.50 60.32 60.34 61.18 61.88 61.42 61.99 60.71 61.13 60.97 60.33 60.21 60.49 59.64 58.12 59.94 61.17 61.14 61.10 61.33 60.63 59.67 59.67 57.41
56.15 54.87 59.06 58.96 58.60 59.58 58.59 58.67 58.76 58.69 59.00 60.46 60.43 60.41 60.69 60.61 60.24 60.26 59.95 59.29 60.17 60.66 61.06 61.81 61.85 61.58 60.85 60.75 60.67 60.19 60.79 61.10 60.75 59.71 59.18 60.24 59.40 60.24 58.46 57.99 56.91 54.89 56.26
54.84 54.93 57.89 58.06 58.39 58.72 58.87 58.76 58.86 59.37 59.17 59.95 60.29 61.47 61.79 61.02 61.29 60.92 59.98 58.69 58.77 59.92 61.34 61.81 62.18 61.67 60.98 60.67 60.92 60.56 60.47 60.05 60.21 59.68 58.71 57.61 56.92 55.74 55.70 55.74 54.83 55.61 54.44
54.45 55.70 57.52 57.44 58.26 59.49 59.46 58.42 58.69 58.63 59.11 60.16 60.54 61.16 61.20 61.24 62.19 61.30 60.76 60.95 60.29 59.24 59.52 61.21 60.97 61.38 59.76 60.22 61.52 60.87 60.52 59.40 59.25 56.74 55.70 55.13 54.54 53.48 51.44 52.60 53.16 53.30 54.22
54.08 54.25 57.67 57.94 60.53 59.33 59.49 57.73 59.22 58.71 58.60 58.82 59.62 59.76 59.79 61.39 51.99 54.21 59.51 61.11 61.02 60.50 59.76 60.84 60.81 59.19 58.23 56.64 57.33 57.00 58.56 57.91 56.26 55.82 54.00 53.65 52.85 53.53 53.40 52.44 53.02 52.25 52.23
54.08 55.01 55.70 55.56 59.60 57.93 58.40 57.04 57.72 55.82 55.13 56.05 56.05 56.19 55.22 57.36 50.49 52.17 55.33 61.46 61.00 60.63 60.27 60.74 62.03 62.20 59.78 60.86 54.08 53.97 54.48 53.47 55.46 56.06 54.19 53.70 53.48 54.67 54.32 52.85 52.89 52.68 52.46
54.50 55.36 54.80 55.47 59.34 56.63 55.90 56.22 56.32 54.47 54.45 53.19 53.00 52.94 53.53 54.61 48.59 50.16 53.12 61.54 61.00 60.09 60.01 59.66 60.57 60.40 59.94 57.35 55.77 55.02 55.30 55.63 56.09 57.48 55.34 54.99 54.78 55.25 55.44 54.98 53.79 53.21 54.61
55.28 54.93 54.60 55.31 58.11 57.27 55.50 55.89 55.49 54.46 53.46 53.08 52.52 51.64 51.23 49.88 46.95 48.00 56.25 59.63 59.22 57.82 57.48 57.08 57.19 56.71 49.49 47.26 54.63 53.27 50.30 48.00 46.28 47.50 51.10 49.71 48.77 49.29 52.97 57.44 55.08 53.66 50.32
55.27 55.97 54.97 54.83 57.33 57.80 55.67 56.06 56.09 54.84 54.00 53.71 52.44 51.77 49.80 47.69 45.73 48.65 54.75 57.77 55.56 53.83 53.62 54.64 49.93 52.75 44.42 45.61 53.51 53.08 50.81 49.73 47.41 46.30 44.47 42.51 41.93 43.40 46.16 49.85 52.73 48.04 45.45
55.75 56.49 55.26 54.55 55.97 58.20 56.79 57.00 56.82 56.36 55.29 52.84 52.37 50.98 50.65 48.21 44.46 45.47 48.93 54.96 54.02 51.33 52.70 52.44 49.62 42.20 44.78 44.64 47.72 51.77 49.97 51.19 47.81 49.98 51.00 51.32 52.18 50.00 49.45 49.56 48.34 48.35 47.43
54.59 55.28 55.40 54.49 57.64 59.65 58.38 57.24 57.58 56.72 55.41 53.95 51.87 50.02 50.06 48.61 44.23 42.72 45.87 47.76 48.72 52.05 51.38 51.27 46.69 42.06 42.27 43.29 46.94 40.69 41.79 45.37 47.53 50.52 52.25 51.52 52.17 51.77 50.57 48.74 48.59 49.86 50.66
53.58 53.33 53.21 55.18 56.79 60.04 59.19 57.41 56.94 57.03 55.76 55.01 53.99 51.40 51.83 49.21 44.50 40.99 41.25 42.98 45.90 50.30 50.98 47.86 41.15 39.77 39.41 39.64 39.30 40.04 43.09 46.60 49.27 50.78 49.58 49.02 48.46 49.45 47.04 46.40 46.94 47.98 49.04
53.28 52.16 51.72 55.13 58.10 59.96 60.25 59.34 58.33 56.18 56.34 55.31 54.38 53.05 52.69 50.77 44.52 39.89 43.16 44.80 44.80 47.83 45.66 42.03 40.91 40.79 41.06 40.84 39.49 40.70 44.56 46.34 50.67 49.72 47.81 46.95 45.88 44.56 44.08 44.61 43.02 44.06 44.57
53.46 53.21 52.83 55.76 58.83 59.04 59.58 58.74 58.55 57.67 57.17 55.36 55.44 55.04 53.58 51.94 49.55 42.12 41.83 44.76 44.66 45.25 41.59 39.33 38.19 38.20 39.52 40.14 41.83 39.97 41.86 45.61 50.16 46.40 44.68 43.83 43.32 43.07 43.41 44.17 44.42 43.09 42.64
54.59 54.19 53.71 56.01 58.31 59.10 57.12 50.74 41.26 46.03 46.45 47.15 47.17 51.87 53.75 50.66 44.45 40.37 39.35 41.24 40.69 39.89 41.97 40.10 38.56 37.53 39.05 40.21 43.76 45.72 47.16 47.98 45.44 44.91 43.03 42.54 42.57 43.92 45.57 42.90 43.71 42.08 39.66
56.49 54.97 53.66 55.62 57.84 57.46 57.38 55.84 53.05 46.21 41.36 43.34 43.43 44.91 46.26 48.93 42.73 40.41 39.22 39.82 39.05 41.53 44.08 42.91 42.25 41.38 40.60 40.91 43.42 47.25 47.79 45.79 43.98 44.02 43.32 43.06 43.64 43.29 40.92 40.47 42.09 42.21 39.53
57.03 49.75 53.96 56.25 57.20 57.53 57.66 57.10 56.26 52.78 51.06 47.37 40.65 42.07 41.31 42.87 42.45 40.67 38.50 40.57 43.38 44.28 46.72 46.89 46.59 46.63 46.54 46.22 46.99 45.26 45.95 43.96 43.74 44.19 43.77 42.74 42.03 43.34 42.13 41.75 41.12 39.58 37.93
57.36 55.64 55.28 55.82 56.99 56.21 57.50 56.73 56.22 53.63 52.80 48.81 43.81 40.65 38.10 37.75 38.49 38.21 38.76 46.91 47.50 49.95 48.42 48.25 48.62 49.23 49.46 47.96 46.45 45.51 45.53 45.00 44.75 43.55 42.15 42.72 44.32 43.16 40.13 40.60 39.04 35.50 35.02
58.09 51.65 53.03 55.19 55.42 55.90 56.22 55.71 54.82 54.18 52.30 51.06 47.97 47.61 40.10 41.84 43.04 42.06 43.36 47.34 46.87 49.27 50.63 50.22 47.18 48.94 47.50 46.89 45.58 45.28 44.27 43.53 43.01 43.10 43.94 44.37 43.00 40.98 40.33 38.72 36.95 35.70 34.51
59.23 55.42 51.92 56.12 55.00 55.67 55.64 54.98 55.02 54.43 53.28 51.89 51.46 47.99 39.17 46.35 46.06 46.82 46.02 47.15 47.12 47.47 48.80 48.72 47.86 47.16 47.02 46.63 45.93 45.64 44.68 43.00 43.24 43.34 42.99 41.05 41.89 39.61 39.07 38.04 37.93 36.71 35.20
60.01 56.74 56.15 56.55 56.68 55.47 54.84 54.99 54.61 53.82 53.65 53.17 52.29 47.17 36.64 47.26 47.73 47.65 48.45 49.94 49.90 48.64 48.50 48.84 47.29 47.37 47.86 46.77 46.08 45.11 43.18 42.71 42.84 42.79 41.88 41.72 40.93 39.41 38.37 38.08 36.00 34.06 33.94
60.03 57.82 56.63 56.90 56.47 51.97 53.06 55.08 54.40 53.98 52.70 53.58 53.01 49.46 43.24 46.15 48.59 48.55 49.03 49.56 47.90 48.17 48.63 48.29 48.43 48.00 47.24 47.04 46.15 45.17 43.41 43.10 44.26 43.39 42.09 41.38 40.36 39.62 38.35 35.34 34.18 32.09 30.12
60.00 58.78 57.17 57.13 56.45 55.31 55.11 53.87 54.50 48.76 53.35 52.54 52.31 51.82 48.69 48.50 49.15 48.40 47.94 48.59 50.13 49.08 49.19 48.74 47.35 46.47 44.08 43.33 43.27 44.18 44.35 44.41 44.37 43.25 42.62 41.12 39.83 36.84 35.13 34.66 33.20 30.86 30.32
57.26 57.40 56.81 56.95 55.98 54.36 54.49 54.67 54.62 53.46 52.14 50.95 50.29 50.31 51.69 50.91 50.14 49.52 47.85 49.07 49.38 48.59 46.34 46.23 45.56 42.99 42.69 42.69 42.16 40.41 35.43 35.48 41.72 38.67 42.09 40.42 37.84 36.10 34.78 33.42 32.03 31.38 29.41
57.10 57.51 56.75 55.47 54.68 53.93 53.66 54.31 55.71 56.00 55.05 52.13 50.34 48.73 48.35 48.78 47.75 48.87 48.93 49.05 47.17 44.57 44.52 44.18 43.39 42.72 42.19 41.74 40.75 36.26 35.41 35.40 36.85 35.80 39.35 37.73 35.84 34.21 33.18 32.06 31.22 29.88 28.48

GFSGL_sfc_wetblb_003.txt.gz
Wetbulb
55.74 55.70 59.07 58.30 58.38 57.01 56.81 56.31 55.88 55.32 56.31 56.89 57.51 58.13 58.31 58.40 58.74 58.42 59.51 61.12 61.32 61.53 61.49 60.79 60.89 61.14 60.77 60.55 61.03 60.89 60.03 59.84 57.98 59.85 61.66 61.62 62.26 62.42 61.62 60.99 61.07 60.08 59.58
55.54 55.95 58.12 58.56 58.56 57.19 56.25 56.00 56.03 56.27 56.81 57.73 58.61 58.71 58.82 58.54 58.44 59.82 58.87 59.49 60.88 60.89 61.33 61.41 60.68 61.14 60.44 60.53 60.58 59.96 60.10 60.72 59.52 58.40 60.54 60.80 60.37 60.53 60.49 59.31 59.39 59.11 57.69
54.69 55.11 57.56 57.68 57.47 56.84 56.21 56.67 56.77 56.59 57.13 58.33 58.85 58.87 58.82 58.84 59.08 58.48 58.87 58.49 59.24 60.99 61.02 61.58 60.95 60.68 60.38 60.56 60.64 60.38 60.71 60.86 60.50 59.48 59.15 59.69 59.71 59.37 58.36 57.49 55.77 54.71 55.81
53.43 56.17 56.75 56.51 57.28 57.24 57.01 57.13 57.17 57.67 57.77 57.87 58.57 59.81 59.55 59.37 59.30 58.86 58.52 59.26 59.83 60.76 61.38 61.68 60.62 60.97 60.53 60.35 60.57 60.32 60.52 60.26 60.16 59.58 59.09 57.66 57.12 56.87 55.94 55.59 55.36 54.14 53.14
52.88 56.25 56.78 56.12 57.06 57.55 57.50 57.43 57.68 57.58 58.10 58.69 59.43 59.68 59.49 59.55 59.97 58.39 58.42 58.28 59.54 60.31 61.03 61.55 61.08 60.51 59.38 59.43 60.97 60.44 60.44 59.94 59.63 57.82 56.49 55.35 53.99 52.82 53.28 52.80 53.08 52.51 53.53
52.61 56.27 56.65 55.83 57.11 57.56 56.18 56.46 56.92 57.27 58.01 58.49 58.45 58.93 58.77 60.47 49.80 53.86 58.50 60.21 60.35 60.24 60.45 60.49 60.20 58.86 57.02 55.31 55.77 56.03 59.22 59.51 57.50 55.85 54.35 54.61 53.27 53.33 51.36 50.90 51.90 51.43 50.67
52.60 55.43 56.36 56.02 57.20 57.08 56.36 56.69 56.54 55.06 54.98 56.23 56.11 56.72 57.25 56.67 48.54 50.17 54.16 60.77 60.19 59.57 60.61 60.75 61.44 60.82 60.16 60.69 54.46 54.52 54.70 54.07 54.53 56.47 54.40 53.77 53.25 53.27 52.18 50.71 50.95 51.35 51.81
52.44 54.45 54.24 55.18 56.32 56.07 55.39 55.70 53.63 53.06 53.64 53.30 53.47 54.20 56.59 55.17 47.45 49.26 53.43 60.86 60.15 60.27 60.41 60.91 60.54 60.35 59.67 59.49 59.52 58.88 56.95 56.68 55.98 57.32 56.22 55.14 54.41 54.77 54.64 54.13 53.49 52.96 53.50
52.75 53.41 53.03 55.20 55.05 54.60 54.19 54.71 52.79 52.31 51.32 51.85 52.08 53.38 54.65 53.68 46.34 47.09 56.03 59.86 59.51 59.10 59.61 60.08 60.51 60.02 50.13 49.64 56.86 53.87 50.14 49.82 46.58 47.23 49.54 45.71 47.05 49.04 52.67 56.39 54.57 54.31 51.41
53.97 53.83 53.00 54.36 55.67 54.31 54.40 53.98 52.89 51.90 51.57 52.15 51.10 51.28 50.31 51.68 44.64 46.54 55.35 58.10 56.21 56.39 56.39 56.05 51.60 56.67 45.18 44.50 53.80 50.33 49.57 48.24 47.15 47.08 45.56 43.31 45.36 45.56 49.29 54.67 54.87 50.44 45.24
55.20 54.09 52.54 52.83 56.28 55.13 54.67 54.41 52.93 52.16 51.41 50.36 50.96 49.34 48.68 50.65 49.68 45.55 48.99 56.88 56.25 53.82 54.14 52.93 52.27 44.99 42.48 42.78 46.81 51.35 49.86 48.32 45.77 48.66 48.88 49.26 48.38 49.19 49.38 47.91 47.10 47.46 47.51
54.93 54.52 52.22 51.29 57.02 56.72 55.14 54.80 53.68 52.80 50.99 49.78 49.28 48.63 48.59 46.72 45.41 44.58 45.52 49.46 49.44 52.72 52.70 52.26 48.84 41.85 41.69 42.02 46.08 43.98 42.91 45.90 48.07 50.97 51.19 50.70 50.73 49.79 47.46 48.30 48.66 48.83 49.49
53.81 53.91 52.26 51.15 53.55 57.05 55.42 54.81 54.53 53.08 51.79 50.47 49.73 48.89 49.15 47.53 44.36 42.11 42.97 43.49 45.17 50.58 51.81 49.30 41.84 40.05 39.70 40.95 39.72 39.42 41.66 47.37 50.94 50.95 50.04 48.37 47.66 46.87 46.07 46.21 46.95 46.37 45.49
52.53 52.23 52.19 51.88 52.32 56.17 57.20 56.56 56.08 54.59 53.42 53.24 51.48 49.65 49.14 47.76 44.95 41.32 44.44 46.57 45.87 48.07 45.20 42.93 41.64 41.38 41.61 41.08 41.21 42.48 45.33 49.22 50.76 50.27 47.48 45.65 44.68 44.40 43.72 43.38 43.66 42.47 43.08
52.10 51.12 50.75 53.05 53.88 56.15 56.75 55.97 56.87 56.86 55.88 55.43 54.94 53.94 50.89 49.59 47.39 43.10 42.38 44.59 48.03 46.68 41.85 40.43 40.34 41.05 41.21 39.51 38.36 39.46 43.41 49.62 49.41 46.29 44.19 42.87 42.76 42.99 42.73 42.89 42.48 43.10 39.94
51.74 51.11 50.26 52.75 54.67 56.49 55.78 51.14 41.39 43.56 46.14 45.34 46.16 52.00 53.53 49.51 44.28 40.61 39.31 39.83 40.08 39.32 41.76 40.09 39.43 40.24 42.22 41.37 40.92 41.07 43.09 47.66 46.53 44.41 42.46 42.14 42.43 42.82 43.12 42.62 41.96 39.89 39.61
53.32 52.02 51.11 52.87 55.84 56.24 56.07 54.68 53.13 47.24 42.34 42.28 42.14 44.00 46.25 48.94 42.10 40.52 38.83 37.93 37.78 39.72 44.53 41.50 41.14 40.23 41.04 41.52 42.78 44.79 46.59 46.07 44.05 44.02 43.00 41.50 42.22 42.19 42.19 42.52 42.84 41.58 39.39
54.37 47.15 52.11 54.25 56.10 56.59 56.40 55.65 55.92 52.77 52.17 49.65 40.10 43.03 41.33 41.21 41.30 40.50 37.31 39.54 39.47 40.74 43.10 43.49 42.16 41.61 39.07 40.22 41.54 44.91 45.99 42.74 42.98 42.53 42.45 42.03 41.55 42.73 42.83 42.01 41.92 40.48 37.50
54.91 53.27 53.50 54.86 56.31 55.45 56.53 55.85 54.76 53.55 52.21 49.09 42.77 39.40 38.24 38.69 38.85 37.37 38.26 46.41 44.48 43.78 44.57 45.40 45.75 44.93 42.99 42.12 42.09 44.25 45.72 44.75 44.16 43.62 42.03 41.76 42.01 42.92 40.58 41.13 40.20 36.03 35.72
55.99 49.32 50.38 54.73 55.05 55.27 55.71 55.33 54.32 52.70 51.41 50.86 46.99 48.06 39.67 41.52 42.95 41.31 40.65 44.48 45.68 46.66 47.30 48.05 47.62 47.77 46.80 46.47 45.10 44.68 44.20 42.50 43.61 43.40 42.20 42.35 42.30 42.77 40.58 38.94 38.66 37.52 36.38
56.88 53.11 49.49 54.20 54.86 55.49 55.43 55.00 55.02 53.97 52.66 50.84 51.48 47.75 38.92 45.89 45.47 45.05 44.14 45.10 46.87 46.55 47.69 50.09 48.74 47.88 48.29 46.52 45.66 45.24 44.98 45.11 44.37 43.28 43.00 42.18 41.94 40.08 39.81 39.59 37.51 36.71 36.38
57.25 55.14 53.54 53.98 54.70 54.83 54.65 54.92 54.46 54.46 54.03 52.87 52.03 47.16 36.42 45.48 46.71 46.76 46.33 47.47 48.52 47.80 48.14 47.78 46.70 47.98 48.54 47.66 47.15 46.43 45.57 44.22 43.80 43.31 42.24 41.52 41.04 40.05 39.92 38.51 36.78 35.95 33.55
57.15 55.05 54.98 54.69 54.00 49.75 51.34 53.97 54.23 54.27 54.23 53.80 52.76 47.79 41.91 45.36 46.92 47.15 47.58 48.00 48.68 48.81 45.40 46.59 47.59 47.11 47.47 47.48 48.12 47.87 46.26 44.81 44.10 43.02 41.91 41.21 40.85 40.34 38.30 36.45 35.36 32.39 30.68
57.39 55.87 55.26 55.35 54.58 53.52 52.96 52.88 53.51 48.96 52.53 52.47 52.97 51.17 47.44 46.80 47.29 47.76 48.11 47.39 47.91 47.51 47.94 48.06 48.06 47.40 46.94 46.90 47.65 46.74 45.89 44.92 44.18 43.43 42.99 41.77 39.39 37.29 36.85 35.28 32.79 31.08 30.23
58.03 56.38 55.26 54.59 53.60 53.88 53.37 53.27 52.78 52.56 52.47 50.79 51.14 51.70 51.43 49.27 47.14 47.29 47.95 46.26 48.50 46.52 45.97 46.13 47.11 46.24 45.35 44.65 44.56 44.71 39.93 37.74 43.17 40.64 42.77 40.65 38.52 37.44 36.09 33.49 32.11 31.00 30.02
57.10 56.71 56.08 55.28 53.88 53.68 53.33 52.65 53.21 53.41 52.28 51.54 51.07 50.80 50.63 50.60 50.76 50.04 48.25 47.59 47.63 46.40 46.41 46.43 44.64 44.12 43.65 42.59 41.17 36.24 35.69 36.67 38.28 37.86 41.90 40.07 37.34 35.84 34.46 32.83 31.51 30.12 29.14

GFSGL_sfc_wetblb_006.txt.gz
Wetbulb
56.60 56.43 58.89 58.37 57.68 57.10 57.48 56.92 56.90 57.08 57.67 58.34 59.22 59.63 59.81 59.95 60.03 61.23 61.39 61.68 61.71 61.46 61.68 61.79 60.96 61.63 61.45 61.57 61.89 62.14 60.34 61.44 58.59 60.11 61.93 62.72 62.31 61.93 62.17 61.91 62.29 61.37 60.56
56.68 56.74 58.66 59.06 58.21 57.40 57.30 56.90 57.37 57.14 58.05 58.59 59.82 59.87 59.74 59.70 60.69 61.01 60.89 61.79 61.60 61.26 61.16 61.33 60.66 61.04 61.32 60.86 61.61 60.76 60.96 61.36 60.09 58.11 60.23 60.65 61.32 61.23 60.39 60.26 60.96 60.43 59.68
56.00 55.94 58.22 58.34 57.43 56.96 56.64 57.08 57.49 57.69 58.17 59.36 59.88 59.87 59.74 60.20 59.70 59.65 59.99 60.81 61.56 61.55 61.87 61.31 61.00 61.20 60.72 60.88 60.98 60.78 60.98 61.26 61.04 59.86 58.98 60.17 60.25 60.39 58.84 58.79 57.64 57.18 57.90
54.78 57.00 57.70 57.62 57.88 57.19 57.50 57.70 57.79 58.54 58.81 59.29 60.04 60.28 60.10 60.22 59.79 59.57 60.00 60.73 61.44 61.63 61.57 61.44 61.38 61.48 60.86 60.57 60.57 60.59 60.62 60.38 60.36 59.64 59.10 57.77 58.50 58.36 58.91 58.29 57.79 58.16 57.24
53.81 57.05 57.03 57.18 57.91 57.71 57.94 57.95 58.43 58.90 59.21 59.76 60.33 60.11 60.42 60.24 59.76 59.42 59.46 59.98 61.23 61.44 61.54 61.51 61.59 60.65 59.09 59.90 60.89 60.62 60.82 59.85 59.66 58.88 57.97 57.63 56.83 57.36 57.92 57.42 57.62 56.58 57.26
53.54 56.77 57.08 57.40 57.95 57.79 57.73 58.01 58.30 58.53 59.00 59.86 60.09 60.31 59.98 60.45 49.01 53.18 57.96 59.70 61.31 61.71 60.24 60.44 60.22 58.20 55.97 54.50 55.77 56.07 59.04 59.80 58.99 59.40 58.08 57.71 57.25 58.01 55.80 56.78 56.15 56.44 55.12
53.70 57.18 57.07 57.61 57.79 57.09 57.43 57.69 57.54 57.57 58.02 58.64 58.53 59.49 59.84 58.25 46.66 49.01 53.18 60.97 60.75 61.03 60.78 60.98 61.24 59.83 59.69 59.14 53.83 53.45 53.90 53.79 55.77 59.58 59.30 58.80 57.57 57.90 56.81 55.17 55.74 56.02 56.53
53.25 56.26 56.64 57.37 57.54 56.89 57.18 57.03 55.78 55.86 56.92 56.74 56.42 58.18 58.62 56.49 47.02 47.93 52.28 61.19 60.52 61.28 61.77 61.81 61.52 60.50 59.60 60.32 60.74 60.63 60.68 60.24 59.88 59.74 60.23 59.65 60.39 59.04 59.32 58.44 57.67 57.36 56.91
52.95 54.98 55.30 56.55 56.88 56.32 56.59 56.08 54.87 54.98 54.58 55.17 55.66 58.11 58.46 56.31 45.57 46.48 56.71 61.06 60.94 61.33 61.53 60.99 60.89 60.54 48.61 50.79 60.39 58.73 55.66 54.45 47.98 49.55 49.58 48.22 47.52 48.62 53.92 58.31 57.65 58.55 57.32
53.56 54.47 54.60 56.65 56.99 56.05 56.08 55.50 54.73 54.44 54.79 54.36 54.66 57.00 54.25 57.30 44.84 46.84 56.09 59.99 58.85 59.13 59.49 59.12 52.98 56.89 45.75 48.08 58.75 55.69 54.85 53.71 53.26 50.88 50.54 50.03 51.02 50.42 49.08 60.07 58.83 57.17 52.42
54.82 54.42 53.67 56.09 56.12 56.39 55.60 55.19 54.46 53.74 53.78 53.33 52.86 52.74 55.07 55.59 53.47 44.84 49.56 59.45 58.17 57.77 58.14 57.30 58.51 48.27 44.79 43.79 48.25 55.49 54.27 51.81 47.94 50.33 50.60 51.65 53.03 53.21 53.40 55.10 57.21 54.88 52.48
54.43 54.32 53.24 54.10 56.93 56.12 56.08 55.28 54.30 53.45 52.65 51.96 51.48 51.01 50.91 52.60 48.63 44.81 45.93 50.82 51.98 57.66 57.19 56.90 54.80 43.51 42.79 42.24 47.90 45.77 42.44 47.05 53.70 53.86 53.55 53.47 53.22 52.55 51.84 51.82 52.87 52.80 53.30
54.18 53.80 52.72 52.49 56.91 56.25 56.12 54.74 53.52 53.10 52.40 51.46 51.80 51.68 51.43 49.82 49.00 45.23 44.13 44.21 46.54 56.06 57.03 52.07 42.51 41.25 41.11 43.32 42.84 41.47 42.30 53.41 54.86 54.98 54.34 53.94 53.00 51.08 50.29 49.74 50.35 49.61 48.27
53.70 53.25 52.26 51.64 54.30 56.32 56.74 56.30 54.88 53.28 52.59 52.34 52.02 51.91 51.91 50.50 49.16 48.92 50.82 49.66 46.08 49.53 46.71 46.25 43.90 43.41 42.49 44.87 45.37 45.11 50.60 54.73 55.53 54.90 53.47 50.90 49.37 49.06 48.23 49.51 47.97 47.58 45.79
53.40 53.21 52.43 52.31 53.22 56.35 56.57 55.98 56.51 56.30 54.21 53.79 53.48 53.26 51.93 51.40 50.82 45.76 48.24 51.52 52.76 48.83 45.99 46.58 46.86 47.14 46.30 46.06 46.07 47.53 49.96 53.37 54.04 51.35 50.27 48.80 48.47 47.93 47.15 48.46 48.07 47.32 45.21
52.11 51.67 52.02 52.75 52.51 55.75 55.82 52.81 41.20 44.95 47.06 44.57 44.95 51.68 53.97 48.68 43.50 40.92 39.82 40.92 40.57 39.84 47.56 47.85 48.05 48.11 48.04 46.84 46.21 45.86 48.81 51.46 53.07 51.04 49.74 49.35 48.49 47.82 47.10 46.82 47.51 45.59 41.87
52.91 51.85 51.21 51.95 53.51 54.81 56.01 55.65 54.73 49.52 43.84 44.26 44.09 44.45 45.50 48.49 41.58 40.53 39.01 37.76 38.16 41.68 51.53 48.38 48.99 48.67 49.43 48.90 47.67 47.11 48.07 51.77 50.95 50.00 49.36 48.79 48.01 47.78 46.06 46.00 45.08 43.46 41.58
53.76 46.21 51.80 53.00 54.42 55.48 56.19 56.48 56.75 55.93 55.07 54.48 43.41 46.03 42.22 42.22 40.88 39.57 37.16 39.59 43.25 43.76 48.59 49.77 49.32 48.58 48.34 48.88 48.44 48.00 49.49 49.35 49.73 48.60 47.95 47.82 48.06 46.63 45.94 44.96 42.94 41.39 40.57
53.79 52.35 53.34 53.59 55.30 54.84 56.62 56.64 56.53 56.61 56.32 54.17 47.71 42.48 40.36 39.72 39.00 37.38 37.90 50.45 47.63 46.79 47.56 48.41 49.79 49.32 47.32 47.11 48.13 48.90 50.35 49.26 48.72 47.56 47.11 46.94 46.95 46.96 46.04 44.44 42.34 37.94 37.68
55.01 48.69 50.35 54.05 55.24 55.93 56.27 56.03 55.84 55.45 55.28 54.42 52.18 53.74 43.67 44.90 47.70 46.31 43.94 47.48 49.29 49.41 48.56 48.60 49.58 49.32 48.33 46.50 45.57 47.00 48.79 46.81 46.66 47.02 46.77 46.37 46.19 46.80 45.23 44.00 42.63 41.43 40.99
56.08 52.81 49.88 54.61 55.30 56.01 56.08 56.09 55.69 55.59 55.13 54.40 54.55 51.67 40.60 50.43 51.30 50.29 48.22 47.48 49.62 50.61 50.21 49.73 49.86 50.01 49.64 48.23 47.31 46.89 47.94 47.77 47.55 46.82 45.70 45.40 45.38 44.51 44.41 42.62 41.36 40.23 39.05
56.38 54.29 53.75 54.96 55.59 55.77 55.95 56.32 56.05 55.84 55.39 54.78 54.88 50.70 36.73 49.75 51.65 51.04 50.70 50.20 50.43 51.58 52.23 51.59 51.45 50.58 50.69 50.08 48.80 47.85 47.30 47.15 47.42 46.33 45.50 44.74 43.13 41.84 41.27 39.80 38.63 37.72 36.74
56.69 54.89 54.19 55.06 55.62 51.16 53.66 55.93 55.94 55.97 55.82 55.48 55.46 52.12 45.56 49.05 51.34 51.43 51.18 51.44 51.32 51.45 51.48 50.17 50.89 51.00 52.03 51.99 51.21 50.57 48.87 47.78 47.19 46.70 44.23 43.28 42.19 40.25 38.88 38.34 37.71 35.53 35.17
56.86 55.86 54.67 54.45 54.33 54.49 54.85 55.05 55.46 50.22 55.49 55.88 55.21 53.94 51.99 50.62 50.87 51.58 52.07 51.99 51.23 51.76 52.05 50.14 50.61 50.78 51.04 51.50 51.68 51.39 51.49 50.08 48.85 47.38 45.32 43.17 40.62 38.61 38.63 37.12 36.04 34.62 33.71
57.00 56.02 55.47 54.91 54.00 53.77 54.06 54.65 54.63 55.09 54.74 54.45 54.28 54.66 54.73 52.62 51.30 51.56 51.98 51.28 51.08 50.65 50.44 50.36 50.58 50.43 50.31 50.47 50.17 49.59 40.36 37.81 45.56 42.13 44.16 42.50 40.21 39.03 38.07 36.99 35.16 33.32 32.19
57.35 56.23 55.93 55.69 55.03 54.65 54.20 53.67 54.13 54.55 54.38 54.25 53.49 54.31 55.09 54.05 53.50 51.54 51.35 50.70 50.36 50.34 50.37 50.19 49.69 49.58 48.82 48.55 47.48 38.49 36.08 36.35 39.21 39.53 42.70 41.54 39.67 38.70 37.70 35.78 34.06 32.73 31.63

GFSGL_sfc_wetblb_012.txt.gz
Wetbulb
66.26 66.66 66.51 66.52 66.50 65.96 65.39 64.86 65.29 65.43 65.45 64.56 65.12 66.01 65.91 65.84 65.84 65.41 64.42 64.29 64.04 64.61 64.03 65.05 64.63 65.34 65.20 65.44 66.85 66.20 64.28 62.89 59.02 59.57 60.31 60.68 60.51 61.47 62.49 61.52 62.62 62.73 60.83
65.77 66.20 66.42 66.52 66.55 66.01 65.04 65.20 64.85 65.13 65.25 64.34 64.72 65.17 65.14 65.23 65.99 63.57 62.98 62.86 63.42 63.45 63.90 62.95 62.38 64.82 65.38 66.20 65.89 64.14 63.52 62.02 59.43 57.66 59.48 60.76 60.74 61.35 61.59 61.75 62.00 62.70 62.09
65.46 65.51 66.12 66.15 65.96 65.71 65.15 65.48 64.88 64.67 64.42 63.88 64.50 64.02 65.01 64.67 64.88 64.74 63.50 62.68 62.85 63.48 62.95 61.79 62.15 63.20 64.78 66.11 65.67 63.24 61.38 61.80 60.67 59.09 58.50 60.59 60.71 61.53 60.67 60.81 60.78 61.29 62.04
64.83 65.10 65.40 65.30 65.81 65.66 65.29 65.12 64.72 64.75 64.14 64.94 65.08 65.18 65.14 64.87 65.34 63.91 63.86 63.98 64.30 63.93 63.68 62.59 62.14 63.04 65.63 64.52 64.71 63.78 62.51 61.65 61.29 59.28 58.70 58.75 59.31 60.09 59.98 58.12 56.97 59.51 60.18
63.84 64.59 65.33 66.29 66.02 65.44 65.12 65.01 65.09 65.01 65.10 65.55 65.41 65.60 65.65 65.28 65.05 64.76 63.95 65.17 65.11 63.73 63.61 63.48 64.69 62.57 60.33 63.08 65.22 64.73 64.40 61.96 61.00 58.70 57.86 57.96 57.84 58.62 57.62 58.74 57.10 58.72 59.70
63.66 64.09 65.11 65.54 64.98 64.90 64.92 64.77 65.22 65.36 65.62 65.60 65.29 65.10 65.35 64.10 52.65 55.42 60.87 64.80 65.58 64.99 62.43 63.74 62.93 60.12 58.29 55.27 56.03 55.67 61.37 62.50 60.28 58.99 57.68 57.20 57.36 57.16 57.77 58.32 59.17 57.65 56.72
63.58 64.24 64.69 64.71 64.08 64.24 64.83 64.79 65.04 65.31 66.05 65.51 65.38 65.30 65.07 63.92 49.73 50.64 55.36 64.85 66.24 65.00 63.26 62.46 61.80 61.29 62.71 63.15 53.52 53.94 53.85 53.80 57.44 60.79 58.20 58.42 58.55 61.08 60.43 61.58 61.26 60.74 59.56
62.97 63.95 64.48 64.09 64.03 64.38 64.54 64.59 65.22 65.63 65.88 65.56 65.63 65.77 65.10 61.50 47.37 47.39 51.56 65.22 65.88 65.19 66.03 65.57 64.86 63.92 63.91 63.91 63.59 62.41 61.86 62.10 63.08 62.14 60.84 62.44 65.24 65.97 65.62 64.37 64.55 65.12 63.85
62.10 63.72 64.42 64.41 64.48 64.69 64.60 65.43 65.85 65.66 65.55 64.98 65.87 65.80 65.39 63.03 47.01 47.21 56.86 63.25 65.03 64.51 65.17 65.34 65.72 65.16 50.87 51.46 63.59 62.45 62.27 59.50 50.47 51.28 52.63 51.20 51.12 53.81 59.76 62.84 62.82 61.48 60.26
61.89 63.85 64.98 64.80 64.62 64.54 65.07 65.23 66.29 66.08 65.19 65.07 65.14 65.89 59.30 64.23 46.30 47.03 56.79 63.24 63.41 63.77 64.97 64.36 51.22 60.69 47.93 50.64 65.51 64.57 63.21 62.60 62.53 61.84 60.79 57.29 59.48 57.76 51.72 67.03 64.36 61.99 63.28
62.33 63.99 64.91 65.57 65.35 65.95 66.18 65.65 65.40 64.98 64.88 65.09 65.19 65.15 64.43 61.01 60.38 45.76 51.56 63.46 63.75 63.76 63.29 62.72 61.77 44.82 46.78 48.89 53.45 65.98 63.12 64.17 60.60 64.01 64.19 64.60 65.06 64.08 64.33 66.57 66.66 65.26 63.60
62.33 63.04 63.99 65.50 65.33 65.76 66.50 65.49 64.95 64.63 64.71 64.58 64.71 64.71 64.85 64.55 54.61 47.03 47.75 54.03 56.25 64.40 63.90 63.98 60.03 43.73 45.10 45.62 52.19 44.10 48.46 56.60 65.05 64.08 63.85 63.32 62.85 63.27 64.18 65.70 66.85 66.69 65.64
62.29 62.28 63.24 64.53 65.41 65.81 65.67 65.28 63.79 64.27 62.73 63.52 63.73 63.42 64.01 65.17 62.68 46.32 46.85 48.12 50.76 64.56 65.68 52.32 44.32 43.04 44.29 48.63 42.47 42.57 43.92 64.36 64.33 63.77 63.70 63.97 64.57 64.93 65.07 63.99 63.41 61.76 60.91
62.30 62.30 62.82 62.83 64.51 65.36 65.00 64.86 63.68 62.88 61.54 61.25 62.75 63.17 63.56 64.39 64.27 64.00 61.71 59.99 50.10 60.04 51.65 58.63 53.83 52.30 45.67 54.53 55.40 53.09 62.19 63.14 63.90 63.65 62.01 61.88 62.24 61.27 60.84 60.89 58.91 57.78 55.67
62.40 62.48 62.47 62.48 63.19 64.97 64.74 64.75 63.81 64.83 61.01 61.09 61.67 62.72 63.40 63.51 64.22 59.40 60.37 64.24 64.59 60.00 60.68 61.68 62.85 63.28 63.15 62.97 63.34 62.66 62.72 62.43 62.00 62.97 62.31 61.26 60.77 60.88 59.97 60.26 58.86 57.26 55.32
62.19 62.26 61.75 61.09 61.99 62.89 64.20 63.94 42.75 48.27 47.37 47.44 48.41 55.47 61.74 51.23 47.34 47.24 48.42 47.42 43.71 45.97 61.41 62.71 62.10 62.24 61.97 62.01 61.70 61.42 61.58 58.85 62.07 62.54 62.33 61.13 60.09 59.49 59.04 59.06 58.83 58.54 57.50
63.30 63.56 62.05 58.92 61.08 60.99 61.57 63.40 62.57 56.13 47.00 45.10 45.64 46.07 46.80 49.66 43.34 43.42 42.18 41.17 40.86 45.06 61.19 61.45 61.17 60.44 60.93 61.39 61.47 61.19 60.63 61.43 63.03 62.33 61.70 61.47 60.83 60.03 57.30 58.42 58.48 58.74 57.26
63.71 51.69 63.08 61.43 60.91 60.75 61.61 61.60 61.97 61.95 61.56 62.12 47.37 50.41 44.49 42.06 39.92 39.45 39.63 44.80 55.34 52.97 60.76 60.32 59.87 60.40 60.25 59.66 59.56 59.60 60.09 60.97 61.70 61.86 61.86 61.87 61.41 60.20 58.16 58.29 58.02 56.96 55.81
63.38 62.37 62.68 62.46 61.68 59.24 61.26 61.81 61.41 61.21 60.93 61.14 61.97 49.54 46.98 40.51 38.69 37.60 39.73 60.97 60.85 60.46 60.88 60.85 61.56 61.23 61.33 61.28 61.18 60.46 59.89 59.73 60.32 61.53 61.46 61.47 61.36 60.18 58.56 58.21 57.80 48.08 48.37
63.80 54.78 57.21 62.32 61.51 61.14 60.93 60.84 60.79 61.00 61.32 61.54 61.71 62.28 62.05 54.35 58.43 57.83 55.12 58.67 61.00 60.40 60.72 60.75 61.20 61.58 61.52 61.50 61.43 61.16 60.64 59.96 60.30 60.47 61.01 61.17 61.06 60.38 58.85 58.29 57.41 52.82 50.38
64.45 63.46 56.95 62.27 61.83 61.48 60.43 60.63 60.83 60.66 60.63 61.08 61.81 61.31 48.95 61.64 62.21 62.42 61.57 61.27 62.05 62.20 62.03 61.78 61.12 60.78 60.24 59.88 60.46 60.53 60.13 60.08 60.32 60.00 59.89 60.34 60.51 59.41 59.58 58.65 56.98 51.59 49.97
64.75 64.38 62.25 62.00 62.55 61.88 61.44 60.88 61.04 60.94 61.01 60.97 61.50 59.97 41.82 62.08 62.21 62.25 62.91 62.65 62.10 62.45 63.06 62.93 62.32 61.68 61.25 60.38 59.48 59.12 59.01 59.08 59.75 60.18 59.80 59.73 59.82 59.33 58.82 57.87 55.49 51.41 47.87
64.63 64.25 63.29 62.46 62.89 57.30 61.50 61.98 61.11 61.11 61.14 61.31 61.45 61.16 59.75 62.05 62.04 62.12 62.95 63.79 63.80 63.18 62.75 62.62 62.45 62.34 62.29 61.90 61.51 60.56 59.07 58.22 58.55 59.82 59.68 59.49 59.01 58.32 57.35 55.99 52.77 50.22 44.27
64.64 64.27 63.78 62.77 62.79 62.94 62.97 62.50 62.54 55.04 61.04 60.97 61.33 61.28 62.01 62.40 62.50 62.55 63.02 64.10 64.33 64.04 63.83 62.65 62.53 62.49 62.63 62.57 62.83 62.85 62.64 62.08 61.80 60.05 59.61 59.07 58.26 54.84 56.61 53.58 51.55 48.76 44.24
64.63 64.45 64.16 63.56 62.90 62.72 63.33 63.29 63.28 63.38 62.72 62.62 62.29 62.56 62.69 63.15 63.19 62.89 63.41 63.77 64.20 63.98 63.92 63.69 63.04 62.92 63.39 63.32 63.26 63.27 56.35 39.89 57.38 52.88 60.43 59.60 58.22 57.00 54.64 52.29 48.74 45.14 43.38
64.11 64.29 64.12 64.06 63.36 63.35 62.82 63.17 63.15 63.77 63.70 63.75 63.61 63.94 63.98 63.94 63.77 63.57 63.65 63.92 63.78 63.94 64.09 64.05 63.66 63.42 63.19 62.95 63.04 54.31 38.63 37.88 49.58 38.08 58.32 58.48 56.86 55.35 53.48 50.68 46.85 41.12 40.44

GFSGL_sfc_wetblb_015.txt.gz
Wetbulb
66.38 66.42 66.60 66.59 66.79 66.61 65.89 65.39 65.80 65.61 66.17 64.62 64.77 65.59 65.60 66.18 66.58 66.55 65.45 64.82 64.62 65.30 64.70 63.73 64.13 65.07 66.38 67.72 65.79 65.49 63.98 63.64 57.29 58.09 59.96 60.43 59.65 59.49 59.79 60.13 60.99 60.15 59.87
65.91 66.30 65.90 66.30 66.62 66.49 65.69 65.10 65.92 65.17 65.46 64.67 65.12 64.72 64.81 65.76 66.19 64.75 63.44 63.78 63.98 63.81 64.44 63.75 62.59 64.50 65.29 66.20 65.54 64.27 63.93 62.21 58.37 56.03 58.31 58.83 59.23 60.29 59.66 60.38 61.32 61.73 60.96
65.66 65.67 66.06 65.84 66.45 66.38 65.48 65.75 65.18 65.09 64.50 64.72 64.85 64.03 64.67 65.12 64.63 64.70 63.90 63.33 64.94 63.53 61.99 61.82 63.44 62.84 64.61 64.80 63.76 62.82 62.23 60.74 59.00 57.17 57.29 59.41 59.80 59.70 59.56 60.68 60.40 60.92 62.26
65.14 65.18 65.76 66.10 66.31 66.04 65.96 65.52 64.76 64.58 64.13 64.61 64.97 64.80 65.06 65.15 64.76 64.76 65.19 64.90 64.10 63.16 62.58 62.54 62.72 63.27 63.88 63.62 63.03 62.09 60.92 58.92 59.06 58.97 58.53 58.55 59.15 59.86 59.13 57.85 57.53 59.77 59.65
64.58 64.80 65.51 66.03 66.23 65.46 64.97 65.05 64.91 64.64 64.64 65.38 64.99 64.82 65.29 65.39 64.28 64.80 64.99 65.34 65.07 64.85 64.48 63.23 63.57 61.89 60.76 62.99 62.59 62.18 61.10 59.24 59.31 58.63 57.81 57.85 57.33 57.67 56.83 57.57 56.72 57.75 59.25
64.14 64.72 65.37 65.47 65.18 65.17 65.15 64.94 64.87 64.83 65.26 65.39 64.75 64.91 65.28 63.35 52.34 53.88 59.67 65.28 65.11 64.41 62.89 62.45 63.89 61.08 57.57 54.81 56.47 57.78 60.95 61.10 59.17 58.27 57.65 57.17 57.49 56.89 56.11 55.56 56.23 55.58 55.01
64.23 65.16 64.95 64.85 64.43 64.53 64.94 64.68 64.92 66.16 67.00 65.54 65.76 65.23 65.21 63.55 50.84 50.66 52.40 65.37 65.90 65.09 64.87 63.75 63.61 64.03 62.81 61.96 54.23 53.87 54.03 53.95 56.36 59.77 57.94 57.45 56.29 56.34 55.15 57.29 59.41 59.27 59.08
64.06 64.77 64.70 64.37 64.26 64.70 64.91 64.65 65.39 67.29 66.33 66.05 66.11 65.93 65.44 61.83 49.21 48.85 49.92 65.85 65.97 65.11 65.20 65.02 64.99 64.80 63.40 62.68 63.12 61.31 60.92 60.27 60.44 60.78 59.72 59.59 58.49 56.90 61.41 63.10 62.33 64.43 63.00
63.93 64.41 64.34 65.02 64.80 64.82 64.65 64.83 66.01 66.94 67.00 66.74 66.41 65.48 64.86 62.82 48.31 47.76 54.78 65.75 65.03 64.22 64.38 65.82 65.65 64.59 50.94 52.20 62.18 60.38 58.87 57.51 53.85 53.38 55.06 53.71 51.88 52.38 58.75 63.30 60.87 61.70 59.48
64.07 64.79 65.20 65.62 65.40 65.09 65.78 66.14 66.59 66.53 65.47 65.48 65.49 65.75 59.84 63.59 47.58 47.04 54.86 65.05 65.10 64.92 65.60 62.79 51.50 60.42 49.38 51.33 63.68 60.60 59.06 59.36 60.08 60.80 61.48 56.63 56.17 58.78 52.80 65.52 64.64 61.62 62.13
64.56 65.47 65.49 65.95 65.75 66.29 65.93 66.35 66.43 65.94 65.70 65.94 65.04 65.51 65.47 63.61 60.16 47.58 49.94 63.88 64.84 64.24 63.45 63.54 61.96 45.54 47.74 50.26 56.01 63.85 61.33 62.19 58.70 62.86 63.02 63.39 64.49 65.03 63.67 65.55 66.27 61.79 62.08
64.16 65.32 65.76 66.17 65.77 66.21 66.20 65.35 65.07 65.50 65.66 65.34 65.10 64.37 64.42 64.65 55.04 48.48 47.58 53.27 56.30 63.63 63.19 63.78 58.21 44.59 47.39 50.70 57.91 47.47 47.25 57.00 64.28 63.84 63.59 63.62 63.12 61.36 63.05 66.20 68.61 68.39 66.99
63.29 64.83 65.72 66.23 66.15 66.63 66.10 64.56 63.62 64.77 64.40 64.57 63.84 64.50 63.25 63.92 62.66 48.02 49.39 49.58 52.18 65.47 65.27 54.13 44.90 43.84 43.51 48.42 45.55 47.65 48.86 64.13 63.57 62.83 62.15 62.39 63.27 64.26 67.14 67.17 66.69 64.86 64.45
62.89 64.21 64.90 65.39 65.15 66.02 65.49 64.62 62.94 62.81 63.27 63.92 62.51 62.99 63.69 63.26 63.64 63.73 63.63 61.27 51.47 58.66 52.10 56.42 55.36 52.50 48.37 53.41 54.43 54.26 63.87 64.33 63.53 63.73 64.37 64.69 65.56 65.34 64.59 64.78 62.35 60.68 58.58
63.18 63.14 63.87 64.31 64.94 65.29 65.47 64.20 63.98 65.15 60.82 62.56 63.75 64.40 64.04 63.71 63.51 58.82 59.88 64.17 65.36 61.13 62.78 63.15 62.91 63.51 63.41 60.84 60.85 62.40 63.32 64.19 63.74 65.17 62.93 62.34 62.58 62.86 62.24 62.54 60.85 58.92 56.80
63.71 62.69 62.69 63.00 63.84 64.99 64.20 64.10 43.62 47.66 47.26 48.65 46.16 55.89 63.02 52.80 48.54 47.14 47.66 47.91 46.10 48.94 61.96 62.18 62.12 62.33 62.40 62.56 62.05 61.81 62.51 59.75 62.66 62.93 62.62 62.00 60.78 60.51 60.28 60.60 60.21 58.80 57.35
65.01 64.84 62.53 60.33 62.53 63.41 64.28 63.68 62.98 56.97 46.99 48.10 46.96 45.21 47.43 51.23 46.35 45.24 43.01 42.58 43.82 48.24 63.22 63.08 62.82 62.89 62.65 62.47 62.43 62.30 61.46 62.24 64.54 62.69 63.04 62.30 60.95 60.72 58.03 59.36 59.10 58.52 58.54
65.38 51.81 63.50 61.47 61.77 61.71 63.30 64.36 64.36 63.32 62.19 61.95 49.12 50.12 44.08 43.17 43.70 42.94 41.78 47.89 58.74 55.04 62.78 63.03 62.70 62.51 62.72 62.69 62.70 62.30 62.04 62.83 62.52 62.34 62.85 62.39 61.96 60.58 59.76 58.87 58.95 58.72 59.01
63.96 62.93 63.38 62.48 61.66 59.93 61.66 62.22 63.55 63.44 63.33 62.83 62.44 49.82 44.79 39.85 39.25 39.85 42.13 61.03 60.00 59.61 59.79 60.43 61.57 61.64 61.72 61.54 61.82 61.62 62.48 62.48 62.41 62.84 63.04 62.83 62.84 61.88 60.78 59.75 58.96 49.82 52.98
64.48 55.25 58.03 62.68 61.76 61.34 61.00 61.56 61.27 61.24 61.52 61.39 61.35 60.91 59.32 53.25 56.66 56.70 57.77 60.81 60.87 60.59 60.17 59.70 60.50 61.69 61.47 61.26 61.73 61.47 61.15 60.79 60.76 61.70 62.47 62.93 62.98 62.75 61.27 60.60 59.35 58.63 57.28
63.64 63.70 57.54 62.01 61.79 61.40 60.70 60.84 61.29 61.04 61.04 61.27 61.35 60.73 50.92 60.49 60.74 60.45 59.54 59.63 59.87 60.75 61.82 62.06 61.69 61.56 61.71 62.51 62.88 62.25 62.05 61.86 61.94 61.45 61.35 62.02 62.67 61.28 62.37 61.74 60.84 60.11 58.49
64.53 64.38 63.62 62.41 61.87 61.51 61.47 60.96 61.27 61.02 60.89 61.24 61.79 59.99 43.38 62.41 61.29 61.59 62.41 62.49 61.61 62.46 62.64 63.44 62.43 62.40 62.09 61.93 62.01 62.04 61.95 61.88 62.28 62.41 61.95 61.04 61.33 61.77 61.84 61.34 60.08 59.49 56.52
65.18 64.79 64.48 63.91 63.34 57.66 61.98 61.55 60.87 61.06 60.92 61.08 61.44 61.52 60.35 63.06 62.51 62.21 63.06 64.37 64.75 63.85 63.43 63.38 63.81 63.34 63.46 63.80 63.84 62.57 61.34 60.83 62.07 62.90 62.41 61.86 61.23 61.12 61.46 60.63 59.60 58.90 54.65
65.69 65.03 65.46 64.62 63.73 63.12 63.50 63.87 62.16 54.63 60.83 61.24 62.25 61.71 62.51 63.48 63.41 63.41 63.37 64.63 65.49 65.78 65.75 64.68 64.12 63.33 64.25 64.84 64.04 63.64 62.95 62.66 62.30 61.57 61.54 61.59 61.46 59.32 60.54 60.09 58.97 58.11 53.47
65.23 66.09 66.24 66.47 64.58 64.08 64.23 64.05 63.80 64.34 62.84 62.77 63.07 63.03 62.32 63.70 63.54 63.91 64.21 64.25 65.11 65.70 65.97 66.08 65.74 64.33 63.84 63.68 63.90 63.47 57.70 40.04 58.10 52.66 61.90 61.57 60.82 61.32 59.56 58.71 58.34 55.83 50.44
64.61 64.93 66.32 66.24 66.22 64.98 64.87 65.27 65.16 65.30 64.47 64.55 64.29 64.28 64.23 63.84 63.55 64.82 65.21 65.11 64.70 64.93 66.09 66.05 66.03 65.54 64.46 63.60 63.67 55.71 41.05 37.79 50.76 39.95 61.02 62.70 60.84 60.05 59.55 58.17 56.72 52.71 45.13

GFSGL_sfc_wetblb_021.txt.gz
Wetbulb
62.48 61.30 61.99 62.64 62.55 60.81 60.74 61.78 60.52 60.19 62.19 60.90 61.50 62.20 62.28 61.71 61.54 60.45 60.11 61.18 61.55 61.57 60.21 59.57 59.54 59.83 59.48 60.05 59.98 60.28 58.68 57.66 55.67 57.49 59.20 60.04 59.80 60.10 60.68 60.65 60.48 60.11 59.59
62.62 61.93 62.95 62.63 61.21 60.87 60.56 61.23 60.20 58.58 59.55 60.69 61.76 63.65 62.53 62.54 61.31 60.75 61.02 62.26 61.36 59.87 60.34 60.27 58.84 60.93 60.31 61.02 61.11 58.47 58.21 58.62 56.92 55.37 57.69 58.64 58.93 59.81 59.71 59.52 59.40 59.98 58.56
63.12 62.91 62.88 62.76 61.14 60.54 60.71 62.06 59.67 59.39 61.05 61.60 61.43 61.54 62.05 62.04 61.89 61.05 60.95 62.14 61.55 59.76 59.89 59.41 59.08 60.28 60.45 61.45 60.20 59.22 58.85 58.89 58.17 56.77 56.29 58.72 58.90 59.30 58.84 59.20 57.87 57.51 58.05
62.91 62.28 62.55 61.20 61.17 60.77 60.90 60.51 61.95 60.35 60.46 61.73 62.58 62.74 63.12 61.89 62.22 63.23 62.92 62.03 61.30 60.11 59.30 60.76 60.72 61.51 60.64 60.12 59.86 59.30 58.85 57.83 57.91 56.71 56.95 57.29 57.87 58.59 58.49 57.13 56.59 57.55 57.23
62.78 62.92 62.58 61.54 61.59 60.93 60.93 59.75 60.75 60.94 60.04 62.16 62.33 61.66 60.66 59.44 59.01 61.37 62.54 61.51 60.65 59.91 60.61 60.67 60.70 61.09 59.90 59.65 59.95 59.14 58.57 57.87 57.31 56.47 56.15 56.79 56.59 56.61 56.21 57.03 56.07 57.53 57.57
62.55 62.70 63.40 63.26 62.89 62.11 61.73 61.81 58.80 60.90 61.40 61.42 61.96 60.45 58.00 58.35 49.18 51.53 57.69 61.36 61.38 60.97 59.84 59.00 59.41 57.95 56.11 54.64 55.29 55.85 58.03 58.17 56.77 56.53 56.25 55.77 56.25 56.19 56.95 56.37 56.15 55.01 53.60
62.40 63.08 63.96 62.84 61.43 62.05 62.02 59.84 59.64 60.78 61.91 61.13 60.47 58.50 56.86 54.35 47.02 47.57 51.57 61.27 61.36 60.45 61.41 61.34 60.48 58.75 57.93 57.14 52.82 53.54 52.92 52.76 56.10 57.86 56.57 55.95 55.77 56.29 56.48 55.67 55.75 54.06 54.62
62.31 62.69 62.01 61.55 60.59 61.18 61.53 60.37 60.65 59.41 59.23 59.30 60.59 58.56 56.53 54.15 47.77 46.70 53.22 61.26 60.61 60.50 60.77 60.76 60.56 58.90 58.27 59.41 58.91 58.71 58.69 59.02 58.74 59.06 58.27 57.59 57.46 57.22 57.06 55.95 53.90 54.35 55.96
61.62 60.77 61.00 61.13 60.16 61.77 61.50 60.05 59.78 60.01 59.84 59.34 60.44 57.94 56.65 54.08 48.33 46.15 58.14 60.79 60.31 60.38 61.77 61.46 60.78 59.41 50.17 51.00 59.30 58.66 58.23 57.41 52.06 50.75 50.72 49.35 47.53 49.94 53.95 55.03 55.53 53.80 52.79
61.61 60.92 61.39 61.21 61.75 61.45 61.90 60.23 59.84 60.35 60.97 62.49 60.84 59.42 55.40 55.38 48.69 46.33 57.03 61.81 59.98 59.14 58.84 58.39 52.90 56.35 47.60 49.58 59.25 58.55 57.31 57.21 56.99 56.26 54.94 51.68 51.77 51.11 51.31 54.47 56.13 53.45 54.15
62.50 62.39 61.46 61.62 62.44 61.33 60.88 60.42 60.74 61.02 60.98 60.56 60.29 59.09 58.43 56.49 52.89 46.52 51.77 61.06 60.40 59.34 58.54 58.07 56.19 47.60 46.52 47.97 52.77 59.18 57.22 57.46 54.59 56.50 55.10 53.34 52.85 52.91 53.60 54.94 57.18 56.63 54.38
61.57 62.17 61.96 62.07 63.64 62.78 60.73 60.54 61.10 60.63 59.71 58.75 58.91 58.62 58.74 57.29 51.75 46.88 46.70 54.72 56.07 59.44 58.06 56.75 52.20 45.43 45.61 47.06 53.84 45.07 47.42 53.40 58.01 57.36 57.13 54.93 53.61 53.44 55.27 57.26 58.59 59.10 58.30
60.82 62.09 62.00 61.52 61.76 60.96 60.17 60.07 60.27 59.92 60.13 59.59 59.11 58.68 57.59 57.47 54.36 48.33 48.15 52.30 52.18 58.18 57.90 51.92 45.25 45.43 44.88 46.30 44.70 46.33 49.56 58.09 57.35 56.31 55.42 55.77 57.09 57.50 57.94 58.00 58.58 58.90 56.97
61.15 61.05 60.81 61.61 60.58 60.57 60.51 60.32 60.34 60.03 59.87 59.89 59.47 58.17 57.43 57.21 57.05 56.67 54.69 54.50 50.39 51.25 47.40 47.76 49.89 51.85 51.12 51.50 51.31 53.22 59.35 58.96 58.69 57.81 56.95 57.23 58.71 57.31 56.15 58.27 56.47 55.29 52.31
61.65 61.08 59.97 61.79 61.27 60.16 57.54 56.02 58.60 57.94 61.66 61.63 60.87 60.04 58.24 57.43 58.26 55.55 56.53 58.34 57.54 54.21 53.71 54.73 54.15 55.39 55.51 55.77 56.59 57.26 58.30 59.16 58.64 58.56 57.87 58.47 59.05 56.73 57.53 58.25 56.39 53.76 51.13
61.29 61.26 60.82 61.33 61.74 60.63 55.02 52.71 43.80 43.70 46.72 51.06 51.97 57.71 59.47 54.07 48.20 48.52 49.94 48.52 47.22 47.60 56.51 56.37 55.03 54.86 56.90 57.19 57.13 57.11 58.23 56.97 58.95 59.01 58.93 58.69 58.26 56.92 58.28 58.77 56.07 53.57 50.35
60.63 60.80 60.36 59.43 60.82 59.21 57.71 55.37 52.19 50.68 45.41 42.47 45.61 49.90 51.26 50.58 46.65 46.97 45.11 45.50 45.51 49.12 56.55 56.53 56.73 55.04 56.19 56.50 56.80 57.92 58.20 58.94 57.93 59.43 58.96 58.15 58.59 59.18 55.49 59.32 57.11 54.23 51.63
58.99 52.15 59.77 58.48 59.98 59.08 59.06 58.88 56.42 54.11 52.42 51.93 47.37 48.36 45.76 45.69 46.42 44.73 42.18 46.81 53.12 52.56 57.55 57.06 57.16 57.34 56.19 55.98 56.40 56.52 56.91 55.78 55.66 56.65 57.08 58.82 59.19 59.45 56.69 57.05 56.98 54.40 51.81
59.17 58.66 58.74 58.40 59.06 58.50 59.29 58.65 59.25 56.56 55.81 53.85 50.14 47.82 42.56 40.91 42.22 42.29 43.87 58.39 58.22 57.39 56.72 57.50 58.18 57.97 57.83 58.26 57.78 57.86 56.47 55.91 55.37 54.86 55.86 56.54 57.03 55.70 55.28 55.37 55.49 48.43 48.20
59.89 53.36 54.67 58.40 57.28 58.54 57.76 59.89 58.21 58.61 57.57 54.75 53.05 54.14 48.07 48.36 51.16 51.12 51.39 57.89 58.42 58.51 58.62 58.04 57.89 57.26 59.67 59.40 58.40 58.80 57.22 54.90 56.17 56.52 55.04 56.00 57.31 56.21 54.79 54.67 54.46 53.69 51.44
60.17 56.12 54.47 57.15 56.74 55.53 57.59 55.89 58.20 59.40 59.06 57.60 55.27 53.86 45.54 55.88 56.00 55.82 55.75 56.97 58.64 58.88 58.93 58.44 58.57 57.14 54.76 55.96 58.34 57.83 57.81 58.04 56.85 57.10 57.10 56.44 55.94 55.64 55.56 54.70 54.20 53.73 50.91
60.85 59.73 56.91 58.47 57.70 56.47 55.10 55.97 55.73 56.42 59.91 59.26 58.20 54.04 40.50 57.36 57.24 57.31 57.52 57.96 58.88 58.22 55.40 56.89 56.82 56.35 55.51 53.94 54.58 56.26 56.83 55.60 54.15 55.33 56.55 57.08 56.91 56.04 55.00 54.47 54.35 52.79 47.18
59.81 59.97 58.97 58.38 57.85 53.36 53.80 56.26 56.01 55.81 55.82 58.35 60.07 57.10 50.00 55.31 55.43 55.92 56.56 57.24 57.56 57.68 58.00 57.13 55.29 56.42 57.22 56.65 55.29 56.01 56.35 56.55 56.74 56.35 54.83 54.66 55.69 56.07 55.42 53.89 53.73 51.53 45.85
60.08 58.19 59.06 58.62 58.62 57.69 57.28 54.81 55.70 51.06 56.06 56.06 55.78 56.02 54.30 54.61 55.92 56.42 56.76 56.82 56.53 56.74 57.39 57.46 57.76 57.36 56.41 56.27 58.08 58.68 57.73 56.87 57.67 57.88 56.93 55.78 54.63 51.16 54.86 52.60 52.74 51.61 46.57
60.73 60.10 59.38 58.50 58.51 57.23 57.08 56.04 56.17 55.97 56.17 57.00 55.69 55.33 55.81 56.35 56.77 57.57 57.93 58.09 58.23 57.72 57.18 57.27 57.48 57.18 56.63 56.83 57.63 57.31 52.69 40.52 54.27 50.45 57.40 56.27 55.79 54.44 54.41 53.86 52.05 49.29 41.45
56.52 60.63 60.43 59.83 58.54 58.77 58.30 57.75 56.85 56.61 56.29 56.82 56.60 55.47 55.98 56.80 57.40 58.28 58.88 58.45 58.35 58.99 59.29 59.20 58.86 58.40 58.22 58.22 58.02 51.75 42.05 40.79 44.11 40.92 55.28 56.28 55.48 54.76 54.01 53.23 51.27 47.09 41.60

GFSGL_sfc_wetblb_024.txt.gz
Wetbulb
60.42 60.20 60.68 60.44 60.49 60.07 59.19 59.58 59.46 58.65 59.60 59.66 60.51 61.15 61.19 60.32 60.00 59.40 60.48 61.17 61.02 60.43 59.78 58.98 58.90 59.03 58.53 59.00 59.62 58.94 57.47 56.95 55.97 57.64 59.37 60.25 60.69 61.21 61.39 61.04 60.98 59.54 58.65
60.24 59.73 59.69 60.03 59.33 59.36 59.54 59.49 59.08 58.40 59.42 59.68 60.30 61.88 61.86 61.19 60.20 59.97 60.88 61.51 59.68 59.75 59.61 58.71 57.97 60.25 58.95 58.68 57.53 57.57 57.41 57.21 57.00 55.93 58.04 58.58 58.40 59.00 59.40 58.70 58.84 59.12 58.67
60.93 60.47 61.66 61.14 59.12 58.90 59.17 59.58 57.99 57.66 58.61 61.37 59.65 60.97 61.17 61.24 60.65 60.68 61.44 61.82 59.73 59.25 59.19 58.68 57.75 59.09 60.39 59.26 59.14 58.56 58.01 58.41 58.33 57.29 56.87 58.52 58.66 58.49 57.59 57.75 57.25 57.87 59.18
61.34 62.05 60.61 59.69 59.64 58.92 59.24 58.81 58.59 58.54 60.24 60.47 61.64 62.44 61.74 61.09 61.84 62.67 62.74 61.38 59.95 59.09 58.82 59.06 58.88 60.48 60.18 59.52 59.04 58.21 58.17 57.61 57.71 57.39 56.79 57.07 57.49 57.53 56.75 54.81 54.56 56.85 56.53
61.57 61.97 61.14 60.82 60.20 59.06 59.33 59.07 61.47 60.81 61.00 61.87 61.88 60.22 59.04 59.03 57.76 59.26 61.22 59.94 59.33 59.00 59.58 60.55 61.31 60.51 59.08 58.96 59.38 58.45 58.07 57.27 57.37 56.59 56.09 56.35 55.99 55.73 54.81 55.77 54.46 54.80 55.14
61.61 61.90 61.82 61.94 60.36 60.17 58.87 57.91 58.48 59.17 60.07 61.03 60.18 58.49 57.19 57.11 47.47 50.08 57.63 59.52 59.97 59.49 58.08 59.38 59.36 57.94 56.47 54.54 55.03 55.67 57.54 57.56 56.83 56.55 55.99 55.39 55.77 56.19 56.25 55.45 54.99 53.16 51.52
62.22 63.06 62.58 61.21 60.43 60.02 60.40 59.03 57.53 60.15 60.24 60.72 57.68 56.21 55.24 53.96 46.46 47.00 53.35 59.94 59.12 59.42 60.08 59.70 58.89 57.75 57.15 56.45 52.69 52.35 53.12 53.04 55.45 57.88 56.38 56.43 55.91 56.55 57.00 56.27 55.71 54.74 53.77
62.04 63.17 61.66 60.13 59.59 59.56 58.79 57.20 57.83 58.29 58.49 58.23 56.37 55.95 54.86 54.57 46.64 47.00 52.44 59.63 59.24 60.29 60.60 59.28 58.41 58.31 57.72 58.63 58.54 57.97 57.95 57.99 58.18 58.91 58.18 57.81 57.88 57.95 57.83 57.02 55.49 55.37 55.36
61.49 61.07 60.81 59.85 58.78 59.72 59.92 57.82 57.61 58.12 57.22 57.49 57.45 55.79 55.12 54.26 46.09 47.36 56.23 59.04 59.32 60.38 61.02 59.73 59.28 58.39 48.52 50.19 58.56 57.43 56.71 55.26 50.64 49.03 48.59 48.16 47.36 49.06 53.88 56.67 54.76 53.85 52.62
61.42 60.44 60.68 59.69 59.78 59.96 60.60 58.59 58.34 58.16 59.27 59.82 57.87 56.49 53.77 55.26 45.55 46.46 55.95 59.94 59.09 59.56 60.00 57.66 51.61 54.86 46.09 49.34 58.33 57.52 55.95 56.23 55.77 54.92 54.49 51.04 51.76 49.67 49.91 55.51 55.34 52.92 51.80
61.36 61.30 59.70 59.59 59.31 59.39 58.87 58.52 58.89 58.94 59.15 59.66 57.71 56.15 55.59 54.97 52.43 46.82 51.17 58.96 59.54 59.31 58.84 57.67 55.37 45.01 45.55 47.36 51.53 57.69 55.59 56.05 52.17 54.76 54.31 54.92 54.37 54.66 53.34 55.25 53.77 54.90 53.58
61.49 60.05 59.42 59.63 61.06 60.47 58.94 59.32 59.61 58.71 57.65 57.39 56.53 55.95 56.21 55.36 48.81 45.55 47.73 52.08 53.65 59.19 58.35 57.96 52.34 43.74 45.01 46.28 51.98 43.38 46.09 52.24 55.83 53.87 53.52 52.11 52.35 52.03 52.72 54.19 55.71 55.99 56.11
59.85 59.44 59.59 60.39 60.52 59.52 58.76 59.01 58.36 57.73 57.21 56.67 56.85 56.87 55.26 55.32 55.14 45.91 46.09 47.36 49.72 56.35 57.23 53.11 44.63 43.56 43.38 45.70 44.10 45.01 48.90 56.53 56.11 54.23 52.86 52.35 53.17 53.18 53.09 55.08 56.39 56.71 54.74
59.78 59.71 59.74 59.74 58.73 58.94 59.42 59.29 58.68 57.89 57.43 57.82 57.03 55.60 55.22 55.34 55.99 54.89 53.75 52.83 48.90 51.31 49.27 50.67 49.19 49.36 47.71 49.43 49.97 51.84 57.77 56.74 56.12 55.55 54.94 54.45 55.35 54.59 53.46 55.45 55.37 53.55 52.80
60.18 60.03 59.88 59.27 58.88 57.82 55.83 56.55 59.41 59.51 59.06 59.13 58.58 57.45 56.27 55.54 56.45 52.31 54.16 55.99 54.92 51.62 51.45 54.08 56.17 56.79 55.39 55.39 56.31 55.73 56.51 56.47 55.91 55.33 54.85 54.95 56.03 55.91 54.77 55.67 55.11 52.47 52.26
59.31 60.06 59.88 59.37 57.96 57.25 53.16 50.46 43.54 44.93 44.64 49.01 51.52 55.32 57.60 52.55 46.46 46.64 47.83 45.86 44.26 45.37 53.87 55.19 53.41 54.62 56.09 56.57 55.93 55.45 55.27 54.85 56.41 56.05 55.53 56.11 56.41 56.19 55.33 55.89 54.71 52.95 51.38
59.33 59.55 59.89 59.11 59.38 56.27 53.91 52.53 51.63 48.89 42.73 43.57 45.64 47.60 50.05 49.85 45.19 44.46 44.97 43.42 43.43 48.84 55.05 54.35 54.87 55.77 55.93 55.89 55.89 55.91 56.05 57.43 56.85 58.00 57.85 57.47 57.61 56.19 51.58 57.37 57.25 54.27 51.98
59.77 52.29 60.25 60.51 60.31 58.40 55.58 53.15 52.20 52.25 53.03 53.84 45.01 45.88 44.59 44.27 43.74 43.19 42.47 45.47 51.75 51.39 55.29 55.55 54.80 54.54 55.91 56.96 56.61 56.66 56.83 56.96 56.83 57.65 57.63 57.69 58.05 57.56 56.28 56.56 57.39 56.43 55.40
60.28 59.38 60.33 60.16 60.31 58.58 57.78 55.39 53.33 51.99 51.93 52.75 49.97 47.35 41.87 39.90 40.84 40.61 43.56 57.01 55.83 55.30 55.31 56.15 56.61 56.31 55.69 56.35 57.06 57.04 57.42 56.88 56.37 56.47 56.81 57.68 57.60 57.84 57.46 57.55 57.17 49.98 50.08
60.06 54.28 55.47 58.63 57.46 57.44 58.44 57.82 55.80 54.12 52.70 51.98 53.55 56.85 47.38 48.95 51.14 50.54 50.11 56.13 57.48 57.15 57.37 57.33 57.28 57.25 57.39 56.76 56.15 56.14 56.00 53.66 53.96 54.65 55.23 56.28 57.31 57.62 57.84 57.19 56.83 55.79 53.38
59.17 56.62 54.62 58.44 57.11 58.10 57.30 58.05 58.45 56.91 55.51 53.31 53.85 53.39 44.56 56.74 56.07 56.77 55.53 55.10 57.80 58.72 58.60 58.21 57.88 57.03 56.61 57.11 57.77 56.99 56.63 56.45 55.99 55.40 55.00 54.93 56.22 55.88 56.77 56.85 56.24 55.33 54.68
58.43 57.91 57.54 58.29 57.47 56.77 56.98 56.47 57.48 58.56 57.42 56.27 54.39 52.60 39.06 56.65 57.15 57.07 57.36 57.29 58.01 58.97 59.44 59.16 58.89 58.76 58.31 56.85 56.02 56.97 57.40 57.60 57.38 56.82 56.54 56.28 54.98 55.49 55.65 55.39 54.49 53.49 51.81
56.91 56.90 57.44 57.92 57.84 52.09 52.56 56.07 55.39 56.83 58.52 58.21 57.06 54.85 49.48 54.35 57.04 57.03 57.11 57.73 58.11 58.62 58.77 57.84 58.78 58.63 58.66 57.45 55.79 56.46 55.74 56.45 57.42 57.38 56.80 56.45 56.03 55.43 54.57 54.89 54.81 52.11 48.92
58.67 57.32 56.02 55.40 55.30 55.21 54.85 53.23 54.34 49.72 55.86 58.64 58.33 57.02 52.21 54.16 57.04 57.19 57.86 58.10 58.12 58.46 59.08 59.14 57.72 57.28 57.67 56.72 56.05 55.00 55.76 56.05 56.35 56.28 56.21 56.15 55.99 53.16 55.67 54.61 54.44 53.02 51.73
53.89 58.25 58.85 55.99 55.14 54.09 54.39 54.54 54.56 54.20 54.71 55.35 57.76 58.41 55.88 54.82 55.79 56.77 56.45 56.69 57.00 57.23 57.27 57.75 58.12 57.87 56.50 55.99 56.48 55.95 51.79 40.68 52.48 49.67 55.95 55.55 54.44 53.78 54.36 54.80 53.65 49.75 44.16
53.56 55.67 57.07 58.62 58.92 55.91 54.33 54.41 54.13 54.94 54.89 55.61 55.69 56.05 57.13 56.01 55.79 56.24 56.25 55.96 55.83 55.73 55.87 56.00 56.39 56.22 56.28 56.13 55.96 51.27 42.90 41.47 43.53 40.19 54.75 56.03 55.03 54.24 53.45 52.25 51.65 50.17 45.47

GFSGL_sfc_wetblb_027.txt.gz
Wetbulb
59.96 59.84 59.71 59.37 59.68 59.05 58.79 58.63 58.21 57.68 58.75 58.97 59.42 59.93 60.45 59.68 59.35 58.31 59.37 60.50 60.65 60.26 59.96 57.60 57.94 57.60 57.14 57.63 58.11 56.26 55.26 55.14 55.19 57.08 58.91 61.05 61.53 61.36 61.02 60.99 61.09 60.32 59.60
60.10 59.59 58.96 58.75 58.47 57.91 58.31 58.49 58.18 57.79 58.49 59.02 59.57 60.33 61.21 60.35 59.41 58.70 59.36 61.30 59.86 59.34 59.10 58.45 57.01 58.56 56.64 57.44 57.57 56.86 55.90 55.86 57.21 55.48 57.95 58.17 59.07 59.96 59.89 58.97 59.19 59.72 58.94
59.32 58.62 58.35 58.11 58.03 58.03 58.37 58.35 57.31 57.24 57.75 58.30 58.77 58.97 60.48 60.55 59.98 60.00 61.13 61.02 59.39 59.27 58.97 58.69 56.95 58.44 59.43 58.65 57.83 57.65 57.65 58.28 58.78 57.30 56.40 57.97 58.01 58.47 57.45 57.77 57.71 57.52 58.12
59.14 58.99 58.42 57.79 57.79 57.95 58.35 57.83 56.73 57.22 57.91 59.66 60.49 61.74 60.79 60.55 60.64 62.12 62.19 61.33 59.22 59.13 58.92 58.68 58.27 59.93 59.11 59.05 58.67 58.13 58.06 57.68 57.47 56.52 56.28 56.00 56.28 56.52 57.04 55.60 54.91 56.48 56.18
59.60 59.08 58.42 59.86 58.68 58.22 58.26 57.35 57.62 57.63 59.70 61.61 61.59 59.20 58.57 58.29 55.98 58.23 61.41 59.23 59.02 58.75 59.48 60.44 60.48 60.28 58.78 58.62 58.65 58.55 57.91 57.40 57.20 56.48 55.44 54.91 54.37 54.73 54.52 55.52 54.27 54.31 54.61
59.40 60.91 60.92 61.11 58.94 57.92 57.88 57.82 57.90 58.07 59.78 61.32 59.02 58.37 56.40 56.61 46.22 51.53 57.34 59.22 59.83 59.25 58.91 59.66 59.13 57.49 56.06 54.38 55.04 55.22 57.36 57.55 56.80 56.18 55.28 53.82 54.30 54.80 55.38 54.66 53.65 52.45 50.85
61.41 61.73 61.44 59.82 58.97 58.84 58.13 57.25 56.35 58.89 59.95 59.77 57.11 55.90 54.50 54.69 45.35 49.01 52.27 59.11 58.39 59.82 59.64 59.09 58.87 57.89 57.60 57.10 52.56 52.47 52.46 52.36 55.25 57.08 55.68 55.66 54.92 55.62 55.31 54.28 54.15 53.14 51.98
61.82 61.54 60.15 59.52 58.54 58.41 57.87 56.42 56.81 58.41 59.83 57.78 54.97 54.73 54.29 54.40 45.56 47.38 51.54 58.89 60.19 60.27 59.31 58.95 58.11 57.75 57.38 57.90 58.08 57.49 57.80 57.98 58.00 58.29 58.04 57.48 57.41 57.65 56.89 55.78 55.25 53.72 53.66
61.79 60.65 59.88 58.89 57.68 57.76 55.84 55.68 55.66 55.86 56.16 55.56 55.47 54.71 54.61 54.77 45.56 47.56 54.93 59.87 59.85 59.80 59.10 59.62 58.81 57.90 47.88 49.37 57.38 55.54 55.14 53.83 50.65 49.37 49.15 48.63 47.38 49.08 53.96 56.42 53.48 51.94 51.44
60.40 60.70 59.62 58.41 57.66 57.60 56.84 56.76 56.58 56.78 56.54 57.69 56.00 55.05 52.82 56.32 45.38 47.38 54.81 59.76 59.23 58.51 58.27 56.96 50.26 53.18 46.29 48.77 57.46 56.26 54.90 55.34 55.80 55.70 54.74 51.56 52.51 50.35 51.03 56.63 54.89 52.00 51.34
60.78 61.81 58.79 58.04 58.32 58.36 57.55 56.95 57.48 57.42 58.19 57.12 55.84 54.54 55.06 54.33 53.16 46.47 49.37 59.52 59.28 58.73 57.52 56.54 53.46 44.47 45.20 46.29 51.12 57.32 54.85 55.64 52.96 56.04 55.66 55.08 54.74 53.32 54.08 53.75 53.71 53.71 51.28
59.91 59.41 58.19 57.58 59.17 58.65 57.74 57.64 58.14 57.16 56.72 55.66 54.55 54.89 55.03 57.08 48.46 45.36 45.93 51.33 54.21 58.89 57.70 56.92 51.38 42.84 43.57 43.75 49.49 43.57 45.69 50.99 55.46 55.07 54.11 53.19 51.83 51.05 52.97 53.53 53.41 53.91 53.68
58.52 57.43 57.27 58.23 58.72 58.20 57.82 57.34 57.06 56.62 56.24 55.25 56.00 56.12 55.56 56.74 54.87 44.66 44.11 44.66 47.74 56.14 58.03 52.16 42.83 41.21 43.02 44.80 43.02 44.11 48.70 54.63 53.67 53.64 53.44 51.70 52.27 51.93 52.14 53.08 53.75 53.54 52.38
57.48 57.11 57.85 58.13 57.50 57.83 58.52 57.97 57.36 56.38 55.92 56.32 55.84 55.44 54.00 54.57 55.09 55.09 53.39 51.84 47.90 51.20 49.02 50.38 48.90 47.74 46.81 47.41 49.27 51.87 56.04 55.35 54.32 53.79 52.32 51.69 51.99 51.25 51.30 53.14 53.73 53.13 52.35
57.96 58.14 57.98 57.64 57.55 56.94 55.94 56.08 57.86 57.32 56.78 57.20 56.18 55.60 55.01 54.93 55.52 51.67 52.92 54.99 55.03 51.63 53.17 54.78 56.50 56.16 54.44 55.14 55.98 54.81 54.91 55.14 54.10 53.33 53.33 53.06 52.56 52.50 51.67 52.70 53.42 51.76 51.56
57.72 57.91 57.79 57.79 57.12 56.22 54.10 52.12 43.59 44.88 45.54 49.01 49.01 53.69 56.34 49.62 43.75 43.21 43.57 44.11 42.66 44.66 56.10 56.54 56.54 56.48 55.76 55.92 56.08 55.74 54.01 53.45 53.98 53.92 53.50 54.09 54.21 54.22 53.16 53.21 53.46 52.37 51.43
58.49 58.25 57.62 56.72 57.00 54.91 53.47 53.45 53.32 48.96 42.44 43.62 43.93 46.65 49.37 47.90 41.39 42.30 42.30 41.94 42.66 48.10 55.06 56.30 56.22 56.52 56.76 56.52 56.29 56.45 54.98 55.84 54.86 55.90 55.06 54.38 54.72 54.62 52.08 54.11 54.15 52.99 51.87
58.73 51.28 58.72 58.44 57.66 55.05 53.87 53.09 52.69 51.69 52.98 53.89 43.19 46.29 43.57 41.76 41.03 40.49 40.31 44.34 50.85 50.58 55.70 55.38 55.16 55.58 56.56 56.46 55.90 55.64 54.49 54.55 54.40 55.06 55.04 55.44 55.38 55.34 53.51 54.12 55.22 55.68 55.08
57.68 58.45 59.64 59.26 58.76 56.16 54.65 52.80 52.08 51.87 53.15 53.67 49.97 46.23 41.03 39.02 38.82 38.84 40.67 53.70 54.14 54.15 53.80 54.90 55.22 55.64 55.76 56.04 56.04 55.84 55.26 55.38 56.10 55.66 55.52 55.92 56.50 56.54 55.98 56.10 55.86 47.92 49.91
57.71 52.59 55.09 59.31 57.71 56.94 55.26 53.53 51.93 51.25 51.08 52.62 52.94 53.72 48.22 48.73 50.91 50.38 51.12 53.82 54.22 54.06 54.25 55.10 55.36 55.12 55.16 55.78 55.90 55.94 55.84 53.80 54.73 56.40 56.42 56.81 57.04 56.93 56.95 56.75 56.71 55.74 53.82
58.30 56.36 53.55 58.98 57.47 58.13 57.55 55.87 54.35 52.46 51.78 51.23 52.90 52.74 42.84 55.66 55.53 55.74 53.85 54.34 55.92 56.09 55.55 55.82 55.60 56.10 55.92 55.47 56.02 55.53 55.80 55.91 55.83 55.76 56.08 55.85 55.84 55.91 56.72 56.99 56.72 56.31 56.34
56.96 57.41 56.52 58.00 58.43 58.02 57.56 57.87 56.85 55.31 54.19 53.21 52.06 51.07 37.95 52.08 56.69 56.53 56.79 56.67 57.16 58.40 58.64 57.92 57.39 57.24 57.26 57.10 56.96 55.74 55.30 55.31 54.84 54.33 54.27 54.51 54.05 55.06 55.54 55.64 55.37 55.13 54.46
55.23 55.83 56.46 57.38 57.30 52.68 53.94 55.59 56.95 56.91 56.47 55.84 54.56 51.59 47.20 52.63 56.45 56.92 57.03 57.78 57.73 57.70 58.38 58.46 58.75 58.54 58.46 58.20 58.08 57.88 57.42 57.59 57.75 57.18 55.93 55.34 54.75 54.25 54.56 54.65 54.39 53.93 52.26
57.54 57.50 54.41 54.51 54.56 53.78 53.67 54.51 54.53 50.77 56.55 56.94 56.43 54.61 51.15 53.05 55.47 56.89 57.27 57.44 57.77 57.93 58.17 58.29 58.56 58.84 59.13 58.36 58.13 57.56 58.06 58.32 57.96 57.49 57.19 56.88 56.13 53.32 54.75 53.91 53.98 53.82 52.78
54.72 55.65 55.81 57.34 53.47 52.65 52.82 52.70 52.59 52.64 54.03 56.48 57.22 56.76 54.99 53.54 54.53 56.71 57.58 57.49 57.42 57.46 57.59 58.09 58.83 58.14 57.66 57.97 58.45 57.64 52.94 42.70 52.64 50.17 56.66 55.96 55.81 55.09 55.34 54.94 54.39 53.07 51.50
52.76 53.30 54.50 55.76 56.87 58.02 54.45 53.11 52.25 52.11 52.20 52.71 53.76 56.52 57.24 55.52 54.89 55.48 56.69 57.07 57.17 57.32 57.56 57.88 58.09 58.22 58.28 58.17 57.49 53.10 43.74 40.98 43.44 40.37 53.12 54.40 53.70 53.51 53.28 53.20 52.12 52.55 49.84

GFSGL_sfc_wetblb_030.txt.gz
Wetbulb
60.07 59.88 59.73 59.51 59.87 59.76 59.67 59.63 59.75 59.51 59.53 60.14 60.43 61.21 61.58 61.79 61.17 60.79 60.92 61.03 60.81 60.14 60.52 60.00 59.90 59.83 59.46 58.72 58.44 58.78 58.68 58.32 55.89 57.95 60.13 62.31 61.24 60.67 60.52 61.54 62.03 61.28 60.40
60.05 59.83 59.55 59.46 59.19 58.95 59.14 59.35 59.00 59.10 60.09 60.59 61.16 61.51 61.99 61.54 60.99 60.40 60.24 61.20 60.55 59.35 59.77 59.25 59.17 59.63 59.42 60.13 59.67 58.62 58.90 59.46 58.38 56.38 58.51 59.52 59.41 60.31 59.77 59.73 59.79 60.22 59.75
59.89 59.06 58.52 58.36 58.38 58.61 59.08 59.31 59.02 59.07 60.01 60.55 60.24 60.31 61.38 61.75 61.32 61.23 60.57 61.07 60.26 59.66 59.63 59.32 59.09 59.65 59.70 59.65 59.39 58.99 59.28 59.65 59.67 57.43 56.90 58.47 58.29 58.93 58.03 58.51 58.29 58.49 58.72
59.40 58.68 58.19 58.20 58.46 58.96 59.28 58.66 58.20 58.85 58.96 60.05 60.54 62.04 61.70 61.14 60.54 60.97 62.46 61.40 59.94 59.65 59.95 59.30 59.01 60.70 59.62 59.84 59.44 59.02 59.80 59.21 58.45 57.60 56.56 56.24 56.50 57.16 57.18 55.38 54.99 56.82 56.24
59.36 59.01 58.25 58.47 58.88 59.10 59.07 58.44 58.46 58.80 60.05 61.50 61.87 60.48 59.93 58.80 55.90 58.61 61.54 60.28 59.48 59.52 60.47 60.19 60.76 60.86 58.95 59.10 59.62 59.30 59.43 58.36 57.51 55.88 54.95 54.81 54.81 55.01 54.78 55.48 54.53 54.89 55.23
59.22 58.94 59.69 60.28 59.07 59.01 58.65 58.33 58.79 59.84 61.34 61.76 60.18 59.25 58.29 56.37 46.40 51.76 57.82 60.61 60.15 60.09 60.20 60.54 60.21 57.86 56.38 54.43 55.28 55.30 58.34 57.98 56.14 55.80 54.90 54.10 54.83 55.03 55.26 54.82 54.09 53.07 51.05
60.40 60.71 60.83 60.09 58.93 58.86 58.77 58.75 57.72 59.40 60.94 60.41 58.53 57.57 56.90 56.60 45.60 50.31 52.31 60.22 60.45 59.99 59.31 59.31 58.91 57.90 57.42 57.11 52.18 52.46 52.59 52.15 55.40 57.66 55.33 55.31 54.66 55.42 55.28 54.36 54.60 54.02 53.17
60.74 61.26 60.62 59.78 59.02 58.80 58.27 57.72 58.73 60.32 60.43 59.35 57.31 56.60 57.19 54.64 46.51 47.41 51.04 61.02 61.03 60.04 59.25 58.85 57.96 58.01 57.46 57.88 58.18 57.68 57.85 58.30 58.26 58.50 57.91 56.93 57.09 56.84 56.50 55.48 54.55 54.41 54.09
61.08 60.34 60.21 59.61 58.50 58.56 57.91 56.72 57.94 58.89 58.21 57.70 57.24 56.68 57.61 56.24 46.14 47.23 56.50 60.63 59.55 58.89 59.47 59.14 58.97 57.76 48.30 49.41 57.19 55.80 55.50 54.59 51.12 49.89 49.17 47.58 46.69 48.50 53.18 55.40 54.07 53.03 51.67
60.82 60.26 60.24 59.36 58.41 58.21 57.20 57.18 58.22 58.34 58.60 58.23 56.71 57.18 53.55 57.48 45.78 46.87 56.32 60.40 58.51 57.80 57.36 56.26 49.77 53.25 46.14 47.96 57.31 56.66 54.90 55.18 55.76 55.86 54.67 51.65 52.91 51.57 51.21 56.40 55.75 53.06 52.90
61.79 61.07 59.66 58.87 58.17 58.78 57.97 58.72 58.78 58.75 58.82 57.82 56.66 57.04 57.64 56.12 53.11 45.96 50.50 59.78 58.75 57.78 56.84 55.86 52.98 45.24 45.42 46.51 50.95 57.04 55.00 56.67 53.90 57.02 56.48 55.94 56.56 56.55 56.87 57.49 57.85 55.61 53.51
61.44 60.06 59.08 58.35 59.53 59.21 58.51 58.73 59.13 58.96 58.00 56.58 56.12 56.26 56.34 57.28 48.66 45.22 47.96 51.76 53.86 58.52 56.94 55.96 48.87 43.05 43.43 44.51 51.12 44.33 46.14 52.79 57.13 56.46 55.74 54.71 54.67 54.81 56.24 56.78 57.55 58.21 58.49
59.40 58.79 58.38 58.53 59.19 58.63 58.69 58.50 58.38 58.72 57.74 56.56 57.18 56.60 56.00 57.84 54.58 44.15 43.61 45.42 49.41 58.09 57.83 49.09 41.78 41.43 41.98 44.03 42.50 43.43 48.71 57.30 56.33 55.83 55.23 54.55 55.97 56.30 56.81 57.04 57.66 57.64 56.89
58.35 58.03 58.21 58.30 58.06 58.92 59.50 59.16 58.70 57.92 57.74 56.96 56.57 56.26 57.16 57.99 56.86 55.11 53.25 52.84 48.55 51.18 47.77 49.63 47.69 47.52 48.44 47.43 51.00 53.98 57.08 57.67 56.95 56.09 55.43 55.26 55.06 55.83 56.37 57.48 56.95 57.05 56.69
58.00 58.07 58.43 58.29 58.46 58.41 57.85 57.61 59.09 59.10 57.83 58.39 57.79 57.07 56.86 58.00 57.30 52.82 53.57 56.98 57.14 52.63 52.93 55.68 56.42 55.30 54.44 55.46 56.65 56.88 56.61 56.62 56.19 55.83 55.04 54.63 54.80 55.00 55.74 57.47 58.19 57.45 57.81
57.64 58.14 58.24 58.37 58.31 58.09 56.51 53.42 42.08 45.99 47.59 47.96 47.05 54.31 57.32 48.96 43.24 42.88 42.52 42.52 43.43 45.96 56.60 56.64 56.50 55.92 55.48 55.76 55.94 56.39 56.98 54.50 56.41 56.31 55.79 55.85 55.22 54.97 55.08 56.24 57.35 57.55 57.15
58.26 58.16 58.04 57.41 58.52 57.36 56.62 57.09 56.67 50.24 42.51 43.79 41.98 45.06 48.50 46.11 40.89 41.25 40.89 41.98 42.34 48.77 57.57 57.18 56.90 57.15 56.21 56.11 57.09 56.86 56.29 57.27 57.44 57.12 56.60 56.36 56.37 56.05 52.55 55.63 56.27 56.48 56.27
58.83 50.30 58.91 58.90 58.89 57.45 57.14 56.93 57.34 56.06 55.69 55.09 44.39 45.40 41.43 39.80 39.98 39.80 40.16 45.17 54.52 53.95 58.16 57.29 57.28 57.75 57.63 57.71 57.66 56.87 57.13 57.44 57.57 57.44 57.05 56.98 57.09 56.62 55.97 56.10 56.74 56.85 57.27
58.71 58.42 59.49 59.21 58.82 56.72 56.84 55.92 55.50 55.09 55.93 55.41 53.09 47.41 40.65 38.14 38.33 38.70 41.43 57.58 56.79 56.84 57.03 57.01 57.74 57.96 58.32 58.33 57.26 56.81 57.80 58.21 57.97 58.04 57.97 57.96 58.10 58.22 58.01 58.44 58.44 48.44 51.68
59.10 52.44 54.79 59.51 58.31 57.43 56.58 55.86 54.78 54.53 54.92 55.98 56.13 56.45 49.52 50.13 53.60 51.36 52.11 56.13 57.08 57.38 57.06 57.65 57.54 58.04 58.19 58.20 57.65 57.59 58.02 56.35 57.70 58.52 58.80 58.84 59.08 58.85 58.49 58.55 58.59 57.93 56.44
58.56 57.36 53.18 59.66 58.88 58.93 57.85 56.60 56.22 55.10 54.62 54.89 56.30 53.77 43.79 57.49 57.36 56.12 54.67 55.52 56.82 57.55 57.53 58.11 58.26 58.26 58.46 58.76 58.74 58.28 58.41 58.36 58.47 58.51 59.04 58.95 59.04 58.37 59.38 59.66 59.74 59.77 59.57
58.40 57.89 57.98 59.43 59.47 59.19 59.15 58.74 57.30 56.43 55.57 55.16 54.99 52.26 37.08 55.30 58.05 58.11 57.93 58.03 58.28 59.00 58.96 58.65 58.73 59.14 59.35 58.89 59.02 59.08 58.69 58.61 58.78 58.95 58.93 59.23 59.04 59.15 59.39 59.00 59.25 59.30 59.17
56.69 57.80 57.55 58.29 58.95 54.18 57.40 58.76 58.48 57.87 57.17 56.59 55.98 53.41 49.54 55.20 57.88 58.77 58.59 59.38 59.59 59.70 60.24 60.10 59.65 59.33 59.91 60.48 60.47 59.67 58.99 59.39 59.90 60.04 59.18 59.11 58.87 58.57 58.66 58.29 58.14 57.87 57.76
56.74 57.13 56.40 56.62 57.21 57.00 57.30 57.31 58.31 52.68 58.21 58.16 57.47 56.08 53.80 54.60 56.73 58.97 59.64 60.13 59.85 60.09 60.46 60.61 60.95 61.01 60.99 60.79 60.78 61.03 61.21 61.58 61.33 60.29 59.85 59.27 58.69 56.10 57.86 57.64 57.42 57.40 57.61
54.87 55.98 56.59 57.46 57.21 54.50 55.25 55.39 55.87 56.22 57.04 58.06 58.42 58.12 57.00 55.47 55.83 57.02 59.08 59.97 59.98 60.13 59.83 60.11 60.64 60.98 61.25 61.50 61.40 61.34 56.48 44.53 57.13 53.80 61.42 61.09 60.36 60.21 59.23 58.76 58.41 57.79 57.17
48.41 49.66 50.88 51.10 52.59 54.20 55.11 55.79 56.05 56.54 56.64 56.59 55.59 55.42 57.15 57.49 56.66 56.93 57.43 58.87 59.30 59.49 59.68 60.14 60.34 60.77 60.96 60.98 61.00 55.31 45.27 42.21 47.37 41.79 58.79 60.34 59.31 59.57 59.42 58.54 58.73 57.57 56.74

GFSGL_sfc_wetblb_033.txt.gz
Wetbulb
66.39 66.28 66.25 66.18 66.40 66.76 66.64 66.57 66.66 66.74 66.39 65.53 65.26 65.43 65.72 66.22 66.49 66.23 66.06 65.71 62.76 61.60 60.97 63.51 63.78 64.56 63.50 63.48 63.43 60.95 63.09 63.25 59.79 60.71 63.59 63.41 62.33 63.15 63.72 63.54 63.60 62.76 60.78
65.88 65.89 65.72 66.16 66.25 66.20 65.92 66.18 66.11 65.60 65.37 65.31 65.29 65.53 65.55 65.42 65.72 65.26 64.51 62.99 61.24 60.38 59.87 61.30 63.17 63.45 64.39 64.58 62.95 61.99 62.34 63.64 61.60 59.95 60.83 60.68 60.33 61.59 61.21 61.17 61.09 61.84 60.83
65.42 65.39 65.39 65.39 65.77 65.72 65.36 65.35 65.29 64.83 65.28 65.29 65.28 64.72 64.35 65.25 65.27 65.24 62.72 61.47 60.99 61.09 60.84 61.01 63.05 63.82 63.78 63.26 63.40 62.64 62.62 62.58 63.02 60.02 58.18 59.77 59.21 59.51 58.74 59.29 59.24 59.45 59.40
64.87 64.64 64.50 64.81 65.14 65.17 65.10 64.77 64.76 65.03 65.00 64.96 64.72 65.02 65.26 65.36 64.26 64.02 63.49 62.51 61.37 61.40 60.54 62.27 63.24 63.80 63.90 63.45 62.24 62.46 62.78 62.11 61.22 59.81 57.52 57.20 57.90 58.51 58.32 56.30 55.55 57.18 56.23
63.47 63.74 64.10 64.62 65.10 64.79 64.22 64.12 64.44 64.80 64.57 64.53 65.01 64.94 64.62 63.20 61.17 62.00 63.29 62.73 61.37 59.73 61.74 60.52 62.97 62.86 59.97 61.04 62.19 61.89 62.79 60.77 59.46 58.20 56.42 56.29 55.57 56.29 55.09 56.18 54.91 55.13 55.97
63.52 63.33 63.86 64.12 64.30 64.36 64.29 63.88 63.73 63.86 65.44 64.12 64.57 64.00 62.84 62.35 46.84 51.82 59.53 62.10 60.90 60.81 60.91 62.28 61.94 59.24 57.81 54.63 55.53 56.38 61.18 60.86 59.12 57.80 56.32 55.50 55.77 56.13 56.30 55.11 54.31 53.61 51.61
63.68 63.75 63.85 63.93 63.49 63.64 63.24 63.46 63.53 64.29 64.06 62.83 64.29 63.50 62.84 62.88 46.55 48.92 52.91 62.81 62.36 60.96 60.79 59.97 59.82 60.02 59.27 59.47 52.13 52.87 52.76 52.40 57.16 60.51 58.21 56.86 55.58 57.10 56.67 55.42 54.98 56.19 54.08
63.89 63.76 63.78 63.80 63.26 63.10 63.08 63.18 63.95 64.00 63.29 61.85 63.76 63.16 63.50 59.18 47.11 46.75 51.10 62.68 62.11 61.32 60.24 59.82 58.94 59.23 58.90 59.21 60.05 59.40 59.35 60.62 61.11 60.80 60.81 59.83 59.54 59.37 57.88 56.95 56.04 54.59 54.64
64.04 64.05 63.89 63.78 63.08 62.87 62.70 63.60 64.87 64.50 61.76 62.48 63.40 62.78 63.55 60.18 46.20 46.93 56.49 61.86 61.04 59.91 59.71 59.83 58.94 58.22 48.83 49.59 59.18 57.90 58.11 57.11 51.17 50.05 50.15 48.18 46.89 48.72 54.30 55.71 54.26 54.64 53.04
64.33 64.34 64.41 63.64 63.21 62.71 63.35 63.40 64.66 65.45 64.09 63.10 62.27 62.93 55.96 60.46 45.48 47.29 56.41 61.01 59.02 58.00 57.64 57.26 50.90 54.72 45.66 48.01 59.34 59.59 56.99 56.87 56.31 54.80 53.55 50.76 52.56 51.66 50.98 58.64 59.10 57.78 56.58
65.13 65.03 64.07 63.84 63.48 63.84 63.69 63.83 64.29 64.19 63.69 63.04 62.28 63.03 61.52 59.26 55.88 45.29 50.91 60.78 59.04 58.63 57.70 56.28 53.04 44.91 44.57 46.75 51.78 58.93 56.08 57.60 53.68 56.15 56.11 56.33 56.63 57.16 58.68 61.24 62.24 60.76 58.01
65.19 64.50 63.70 63.72 62.91 63.23 63.58 63.88 64.11 64.38 63.41 62.38 62.11 59.86 59.44 59.20 49.59 45.82 48.38 51.91 54.22 59.65 57.48 55.74 49.50 43.30 43.84 45.29 52.82 44.37 46.02 52.64 58.00 56.61 57.19 56.92 57.58 57.21 59.38 60.21 61.19 61.36 62.60
65.06 63.38 63.80 63.55 63.62 64.15 63.93 64.00 63.56 63.76 62.62 60.96 61.03 59.17 58.34 58.86 55.16 44.57 44.39 46.38 49.82 58.51 58.63 48.19 42.18 42.03 42.76 44.91 43.83 45.29 48.41 58.50 58.33 56.80 56.29 56.85 57.94 59.93 60.49 59.46 59.68 61.26 62.10
64.41 62.45 63.83 63.33 63.04 64.05 63.96 64.15 63.71 62.90 62.11 60.55 59.64 58.58 58.75 58.97 57.02 56.12 56.06 54.65 48.66 51.74 48.17 50.71 47.58 48.16 47.34 46.75 51.08 53.51 60.28 60.24 59.48 58.00 58.22 58.87 60.12 59.86 59.83 60.30 59.05 58.93 58.87
64.32 61.91 63.74 63.40 63.56 63.67 63.94 63.23 64.38 64.62 62.14 62.16 61.00 60.70 59.26 58.95 58.41 53.95 56.39 59.35 59.12 54.45 53.16 57.03 56.48 56.17 55.72 56.45 57.72 59.16 59.33 60.64 60.61 60.24 60.24 59.55 60.21 60.31 60.31 61.16 60.87 59.85 58.28
63.73 63.00 63.34 63.57 63.54 63.29 62.52 60.64 42.04 45.76 45.29 46.02 48.10 56.38 60.84 49.72 44.57 44.21 44.39 43.48 44.03 45.48 56.94 57.25 56.39 56.39 56.92 57.87 58.47 59.31 60.60 58.33 61.14 61.06 60.97 60.70 60.13 59.95 60.11 60.68 60.45 59.03 57.88
64.08 64.20 63.55 61.90 63.60 62.92 62.75 62.82 61.31 52.80 41.22 41.09 42.39 44.21 47.42 46.96 41.83 41.67 41.67 41.85 42.94 48.39 57.74 57.30 57.16 56.97 57.53 58.79 59.53 60.23 60.61 61.52 62.18 61.46 61.16 60.86 60.82 60.77 57.78 59.40 59.59 59.80 59.81
64.94 52.30 64.11 64.07 64.14 63.79 63.16 63.24 63.24 62.31 60.13 61.74 44.84 46.14 39.86 40.20 40.38 40.02 41.31 46.06 55.58 55.30 59.43 59.19 58.97 59.79 59.01 59.53 60.53 60.63 61.58 61.80 61.53 61.64 61.58 61.58 61.02 59.83 58.46 58.59 59.55 59.55 59.82
64.02 63.42 64.22 64.56 64.53 62.32 63.71 62.61 63.15 62.34 61.94 61.89 56.78 48.46 41.78 38.16 38.37 39.68 42.94 59.74 58.30 58.07 58.88 58.82 59.32 60.48 61.90 62.14 62.01 61.28 60.91 61.82 61.30 61.75 61.82 61.59 61.69 61.11 59.85 59.20 59.03 49.06 52.21
63.95 53.98 57.60 64.41 63.92 63.95 63.50 62.38 62.05 61.59 61.67 61.66 62.93 61.83 52.05 51.38 55.14 53.00 58.59 61.30 60.59 60.76 60.75 61.29 61.42 61.19 61.35 61.67 61.66 60.60 58.73 60.89 61.70 61.99 61.94 61.82 61.64 61.16 60.06 60.48 61.14 61.15 61.34
63.48 62.99 54.38 64.04 64.10 63.92 63.81 63.05 62.31 61.36 61.40 62.36 63.28 60.57 45.08 61.95 61.47 59.80 60.50 62.05 62.52 62.47 62.27 62.32 62.12 62.38 62.76 62.89 62.62 60.70 60.32 62.32 62.43 62.55 62.32 62.21 62.11 61.43 62.24 62.45 62.23 62.07 61.84
62.81 63.20 63.22 63.59 64.09 63.70 63.98 64.08 63.51 62.78 62.72 62.15 62.31 57.29 38.03 60.87 63.65 62.90 62.43 62.87 63.47 63.93 64.29 63.92 63.69 63.64 63.69 63.54 63.26 63.09 62.94 62.86 63.05 63.00 62.92 62.97 62.76 62.71 62.61 62.42 62.15 61.89 62.24
62.76 62.22 62.62 63.51 63.87 56.94 62.67 64.10 63.82 63.85 63.76 63.65 62.96 60.33 57.04 61.22 63.29 64.03 64.12 64.25 64.39 64.44 64.62 64.34 63.96 64.00 64.49 64.76 64.95 64.54 63.52 63.11 63.61 63.96 63.27 63.06 62.77 62.67 62.50 61.84 61.82 61.84 62.16
61.11 61.56 61.61 62.00 62.55 63.30 64.06 64.12 64.45 55.38 62.98 64.33 63.92 62.94 61.06 61.13 62.20 63.06 64.18 64.86 64.98 65.16 65.28 65.07 65.01 64.76 64.64 64.45 64.45 64.50 64.72 64.67 64.67 64.16 64.17 63.15 62.68 60.47 62.03 61.78 61.87 62.07 62.15
55.32 56.77 58.47 59.43 59.20 59.61 59.75 59.81 60.23 60.75 61.14 61.51 62.42 63.27 64.22 63.57 62.47 62.59 62.86 63.60 64.01 64.31 64.63 64.94 65.04 65.05 65.08 65.42 65.37 65.27 58.42 41.23 58.60 54.32 64.70 64.34 63.58 63.10 62.36 61.89 61.95 62.39 62.13
46.63 48.21 51.28 52.99 52.76 52.72 52.23 51.87 52.46 52.80 53.07 53.91 55.52 57.23 58.06 58.80 59.27 59.35 60.21 60.94 61.56 62.26 62.84 63.45 63.85 63.94 64.18 64.44 64.37 54.74 42.70 40.15 50.53 41.15 61.33 64.05 63.88 63.32 63.31 63.45 62.95 62.76 62.58

GFSGL_sfc_wetblb_036.txt.gz
Wetbulb
71.03 71.01 70.97 70.61 70.64 70.38 69.84 70.01 70.09 70.38 69.93 68.93 68.20 67.39 66.93 67.13 68.03 67.99 67.84 66.97 65.55 64.65 62.70 61.78 64.46 66.27 66.55 65.38 65.39 63.33 66.23 65.08 62.63 63.99 65.43 66.45 66.55 66.66 66.51 66.57 65.74 65.85 62.82
70.58 70.26 69.88 69.62 69.48 69.53 69.34 69.64 69.83 68.96 68.39 66.97 66.60 66.32 66.83 66.93 67.59 67.09 66.00 65.88 62.46 61.20 61.48 61.44 64.09 65.16 65.99 66.40 65.98 62.41 65.00 66.74 64.01 61.43 62.85 62.45 62.64 64.60 63.79 62.96 62.76 63.88 62.69
69.32 68.89 68.88 68.99 69.09 68.94 69.01 68.95 68.41 67.44 66.70 66.61 66.79 66.63 66.40 66.32 66.46 66.67 65.86 65.11 61.44 61.48 61.41 61.48 63.92 64.95 65.24 65.90 65.60 63.95 65.66 66.10 66.47 61.82 59.79 60.87 60.35 60.98 60.14 60.60 60.10 60.12 60.13
68.01 67.89 67.80 67.99 68.26 67.99 68.15 67.80 67.22 66.64 66.51 66.80 66.75 66.03 66.61 66.90 66.02 65.66 65.52 64.38 63.12 61.26 62.52 63.25 64.28 65.01 65.48 65.96 64.78 65.67 66.37 64.15 63.15 61.25 59.25 58.57 58.65 58.82 58.57 56.83 56.42 58.19 58.11
66.20 65.76 66.17 67.12 67.51 67.14 66.62 66.58 66.48 66.68 66.49 66.29 66.25 66.46 66.51 66.24 64.26 65.71 64.48 63.25 61.84 62.91 61.21 61.89 65.12 63.77 60.06 62.39 64.96 65.71 65.51 62.86 61.77 60.02 58.02 57.19 56.08 56.65 55.60 56.83 55.26 55.44 56.10
64.55 65.07 66.20 66.57 66.63 66.22 66.14 66.19 66.12 65.88 65.96 65.88 65.98 65.66 65.59 64.89 49.03 52.15 59.74 64.09 61.40 61.31 62.49 62.54 64.98 61.49 59.47 55.69 56.27 56.26 63.22 62.85 62.32 59.49 57.45 56.03 56.36 56.34 56.55 56.29 55.13 53.67 51.56
64.96 65.25 65.58 66.05 65.77 65.74 65.46 65.20 65.23 65.80 66.47 66.01 66.03 65.75 65.85 65.72 48.64 49.80 52.86 63.92 61.65 61.86 61.38 62.18 60.90 62.13 61.50 63.28 53.26 52.93 53.67 54.05 58.98 63.71 58.84 57.92 56.83 57.04 57.24 56.21 56.44 56.34 55.09
64.69 64.93 65.32 65.18 65.02 64.94 64.75 64.78 65.51 66.05 66.16 66.46 65.86 66.02 66.24 62.49 48.16 47.80 51.79 64.63 62.55 61.73 61.31 61.36 61.73 62.54 62.38 61.43 62.00 61.92 62.64 62.67 63.44 63.38 62.60 61.06 59.65 59.35 59.39 59.95 59.68 56.54 54.87
64.58 64.62 64.87 64.46 64.34 63.84 63.87 64.87 65.50 65.70 65.47 65.70 66.01 65.74 65.88 63.96 47.44 47.26 55.49 63.26 60.92 60.14 60.40 60.52 60.80 62.19 50.69 49.68 62.24 62.34 62.45 59.89 51.41 50.49 52.14 49.82 48.95 49.59 55.07 56.50 54.36 53.79 52.35
64.30 64.32 64.83 65.09 64.46 64.25 64.65 65.21 65.80 65.50 64.92 65.16 65.56 66.18 57.87 63.20 46.35 47.26 56.14 61.11 59.35 57.99 58.81 58.73 51.93 58.25 45.45 48.87 62.37 61.00 58.78 59.07 59.42 57.74 56.12 51.67 53.33 51.61 51.39 57.59 56.65 54.69 54.24
64.68 65.05 65.38 65.15 64.43 65.10 65.50 65.98 65.89 65.40 65.50 65.41 65.19 65.05 63.25 61.89 58.92 47.08 51.25 61.31 59.61 59.07 58.04 57.20 56.07 44.36 44.72 46.88 53.40 61.04 58.43 59.35 55.09 57.95 56.63 56.10 56.12 57.21 58.32 58.64 59.43 58.08 57.22
65.58 65.35 65.40 65.13 64.62 64.89 65.35 65.56 65.69 65.98 65.41 65.19 64.74 62.53 62.03 61.97 51.49 47.82 48.89 52.51 53.91 61.37 58.63 56.46 50.14 42.91 43.81 46.35 54.39 44.52 46.32 52.99 58.49 57.11 55.91 55.31 55.89 57.08 58.56 61.64 63.67 63.78 64.39
65.61 65.17 65.10 64.80 65.09 65.59 65.40 65.21 65.58 66.48 65.92 64.16 63.88 62.76 60.81 60.13 56.78 44.31 45.26 46.90 48.93 60.21 59.24 46.94 42.15 41.46 42.91 45.95 44.18 45.45 48.81 57.71 57.46 56.80 56.73 57.11 57.78 60.39 62.28 62.52 63.79 64.20 63.73
65.70 65.18 65.18 64.85 64.83 65.44 65.41 66.19 66.39 65.91 64.56 63.55 62.83 62.15 61.14 59.02 57.95 59.60 57.54 58.55 49.75 52.37 49.63 51.78 47.73 47.26 48.13 49.61 52.59 54.05 60.04 59.98 59.13 58.46 58.06 59.60 60.99 61.28 61.28 62.10 60.44 59.57 60.19
65.38 65.22 64.94 65.09 65.23 65.05 65.78 64.69 66.47 66.59 61.73 64.41 64.35 63.48 60.68 59.80 58.54 55.79 57.12 61.47 60.61 54.77 55.17 57.23 56.08 55.35 54.82 55.89 57.12 59.53 61.89 60.44 60.00 60.64 60.79 60.38 60.93 60.67 60.30 61.59 60.24 58.79 58.92
64.90 64.86 63.84 64.35 64.99 64.65 64.46 63.37 43.65 44.18 43.43 44.54 45.25 56.50 62.45 51.48 45.99 44.90 44.18 43.45 44.72 45.26 57.72 58.16 56.97 56.28 56.10 56.86 58.25 58.66 60.53 58.57 61.56 61.12 60.51 60.87 60.81 61.03 61.50 61.52 61.54 60.39 58.98
64.96 65.43 64.83 62.63 63.96 63.84 64.34 64.31 62.95 54.74 41.93 41.03 42.53 42.91 48.77 48.53 43.09 42.36 42.36 42.55 42.73 47.20 59.69 59.38 58.54 58.19 58.38 59.02 60.34 61.27 61.32 61.86 63.01 62.27 61.80 61.63 62.48 62.40 60.39 61.37 61.45 60.73 59.68
66.28 53.92 64.91 64.80 64.44 63.77 64.48 64.58 63.15 63.89 62.82 62.20 45.51 45.74 41.21 41.09 40.91 40.55 41.82 46.56 56.14 56.31 59.92 59.54 59.88 60.83 61.37 61.89 61.73 61.76 61.82 62.36 62.28 62.20 61.93 62.97 62.88 62.37 61.69 61.63 61.39 61.07 60.38
65.91 65.22 64.82 65.01 65.20 62.57 63.80 63.89 62.99 63.13 63.89 63.91 60.35 50.87 43.37 38.29 38.52 40.19 44.36 60.52 59.86 60.32 61.92 61.76 62.14 62.21 62.77 63.24 63.38 63.56 63.00 63.42 63.29 63.51 63.58 63.56 63.39 63.02 62.19 61.33 61.02 50.74 53.71
65.31 54.34 58.25 65.12 65.41 65.16 63.59 63.67 63.78 63.76 63.77 64.62 64.01 62.61 55.57 53.62 55.25 53.98 59.49 60.47 59.93 61.09 61.18 61.28 62.00 62.39 62.84 63.18 62.99 64.10 63.75 62.84 63.69 63.95 63.89 63.92 63.86 63.43 62.07 61.44 60.39 59.53 59.98
64.59 65.27 54.60 65.39 64.98 64.78 64.45 63.09 62.66 62.94 63.64 64.03 64.70 61.66 48.75 63.94 62.72 61.04 62.93 63.45 63.63 63.92 64.00 64.28 64.52 64.33 64.40 64.37 64.79 64.28 63.60 63.50 64.25 63.92 64.19 64.34 64.31 63.39 63.71 62.76 61.89 61.98 62.24
64.23 64.88 64.47 64.32 64.78 64.65 64.99 64.96 64.10 63.09 62.80 63.14 64.51 59.33 40.35 62.39 64.81 64.41 64.43 65.04 65.74 65.86 65.74 65.45 64.99 64.94 65.04 64.98 65.34 65.06 64.37 63.79 64.34 64.70 64.11 64.23 63.97 63.44 63.09 62.61 62.68 62.87 62.90
64.29 63.86 63.77 64.01 64.65 58.91 65.01 65.39 65.01 64.59 63.71 63.83 64.10 62.63 61.90 64.30 66.01 65.98 65.78 65.95 66.07 66.02 66.52 66.57 66.22 65.91 66.37 66.19 66.23 65.82 65.22 65.12 65.64 65.95 65.02 64.80 64.42 64.10 64.08 63.44 63.18 62.76 62.39
64.94 64.42 64.42 64.62 64.80 64.78 64.98 65.47 65.76 56.87 64.88 64.38 64.75 64.42 64.37 64.90 66.28 66.64 68.16 68.15 67.61 67.53 67.51 67.17 66.46 65.87 66.12 66.50 66.84 66.98 66.69 66.52 66.01 65.13 65.34 64.62 64.23 62.25 63.85 63.35 63.04 62.84 62.43
57.43 63.11 63.74 63.65 63.80 63.31 63.77 64.50 64.80 65.17 65.46 65.79 65.32 66.52 66.02 65.97 65.64 65.35 65.60 66.40 67.86 68.35 67.66 67.88 67.78 67.31 67.39 67.13 63.65 62.03 52.97 40.30 58.54 47.82 65.74 65.94 64.98 64.70 63.75 63.15 62.93 62.67 62.77
46.77 49.33 52.63 55.23 55.28 55.07 55.28 55.15 55.37 55.27 55.90 57.01 58.21 59.61 60.70 59.90 59.93 60.50 61.02 61.17 62.97 64.31 64.83 65.73 64.51 60.18 56.26 53.77 46.85 37.25 35.09 34.99 46.99 36.18 56.64 64.65 64.29 64.22 64.13 63.92 63.80 63.38 63.40

GFSGL_sfc_wetblb_042.txt.gz
Wetbulb
71.17 71.73 72.43 72.84 73.06 72.97 71.89 70.85 70.90 71.25 70.53 70.06 69.39 67.99 67.09 67.33 68.25 67.38 66.63 66.50 65.13 64.79 64.65 64.12 63.06 63.20 64.06 63.94 63.36 62.78 61.81 60.76 58.32 60.83 62.48 63.57 62.43 62.83 64.15 63.39 64.34 63.40 60.63
71.87 72.08 72.18 71.49 71.49 70.68 69.68 69.24 70.39 69.50 69.69 68.99 68.67 67.56 67.46 66.96 66.83 66.55 65.65 65.60 64.70 63.95 63.75 61.52 60.02 61.42 63.19 63.43 63.46 62.09 61.92 61.97 60.73 59.27 61.27 61.88 62.04 63.50 64.29 64.60 64.13 63.07 61.41
69.85 69.42 69.38 68.32 68.48 68.99 68.80 69.43 69.58 68.96 69.40 67.95 67.23 66.53 65.82 65.92 65.35 66.66 66.50 65.53 64.91 63.93 62.78 60.45 60.94 61.65 62.23 62.84 62.92 62.30 62.36 62.63 62.09 60.75 60.05 60.78 61.21 61.62 59.98 60.16 59.43 59.62 60.30
68.21 68.36 68.17 69.02 69.45 69.32 69.14 69.60 68.69 68.35 67.35 67.11 66.89 66.24 65.57 65.35 65.89 66.15 66.30 65.47 64.65 63.31 62.28 61.34 62.35 62.69 63.09 62.61 62.72 62.20 62.50 61.81 61.86 59.79 58.51 58.37 58.61 59.20 58.69 56.88 55.88 57.85 57.16
67.62 68.24 68.50 69.20 69.33 68.85 68.29 68.08 67.58 67.46 65.68 65.82 65.48 65.36 64.92 64.06 62.65 65.63 65.79 65.16 63.59 61.65 61.46 61.54 63.10 62.55 60.60 62.06 63.65 63.21 62.48 61.40 60.17 57.90 57.02 56.94 56.78 57.00 56.58 56.46 55.00 55.64 56.84
67.73 67.74 68.30 67.87 67.68 67.55 67.53 64.94 64.61 65.54 65.67 64.82 64.75 64.48 62.26 61.76 49.93 53.20 62.51 63.33 62.84 62.03 61.48 61.32 62.75 58.55 56.98 56.16 57.45 58.45 61.24 61.78 58.91 57.56 56.86 56.04 56.42 55.84 56.32 56.04 55.58 54.92 52.90
66.47 66.08 65.66 65.66 64.79 64.62 65.56 64.83 64.53 65.46 66.18 64.94 64.93 64.94 63.79 60.31 49.39 51.20 57.37 63.99 62.10 61.83 62.23 62.28 63.13 62.63 61.25 61.71 53.53 54.52 54.84 55.43 57.74 58.95 56.93 56.70 56.00 56.76 56.96 56.20 56.40 55.35 54.82
64.60 64.44 65.00 64.80 64.57 64.36 64.20 63.98 64.13 66.18 66.50 65.82 65.68 65.27 63.24 58.09 50.12 50.48 51.93 63.40 62.01 61.09 61.71 62.37 62.89 62.92 61.30 62.48 62.96 62.46 62.54 60.79 61.00 60.46 59.16 58.28 58.25 58.34 58.31 58.11 56.66 56.14 56.24
63.95 64.76 64.53 64.04 63.62 63.68 64.02 63.82 65.01 66.07 65.56 65.38 65.63 65.26 63.13 59.84 48.30 49.75 57.32 62.80 60.85 60.37 61.21 62.25 62.67 61.39 52.24 51.55 62.52 60.86 59.90 58.27 53.17 52.90 52.07 49.62 48.21 50.10 55.13 57.32 55.32 54.66 53.64
64.20 63.84 64.56 64.30 63.57 63.72 64.45 64.14 65.24 65.56 65.46 65.03 65.00 64.96 57.24 60.27 47.03 50.48 58.83 61.78 59.92 59.22 59.48 59.99 49.80 58.20 47.22 49.21 61.55 60.50 58.69 58.34 57.07 55.98 54.61 51.32 53.50 52.14 51.41 58.47 57.03 54.42 54.32
65.09 64.66 64.94 63.75 64.55 64.64 64.84 65.36 66.05 65.03 64.85 64.40 64.21 63.51 62.64 61.03 56.34 50.48 52.32 60.07 59.32 58.91 58.54 58.70 56.30 44.50 46.85 47.40 53.94 60.91 58.27 58.60 54.67 57.32 57.53 57.43 57.50 57.21 58.19 58.72 58.91 56.60 54.44
64.97 64.33 64.36 64.61 63.26 65.13 64.59 64.28 65.78 66.08 64.41 63.61 62.82 61.75 61.96 60.53 52.71 48.63 47.03 51.99 54.74 59.04 58.20 58.02 50.55 43.95 44.50 46.85 52.54 45.04 47.40 53.75 57.86 56.54 56.06 55.86 56.26 56.24 56.92 57.87 57.74 57.38 57.84
64.88 63.98 64.37 64.99 63.14 65.10 63.38 63.33 65.56 65.20 64.08 63.62 62.94 60.74 60.15 60.17 56.87 44.62 45.06 46.76 50.37 58.97 57.80 47.90 42.67 42.32 43.23 46.09 44.68 46.11 50.78 57.22 56.41 55.33 54.88 55.44 56.48 57.25 57.74 58.09 58.52 58.24 58.38
63.97 63.83 64.39 63.61 64.25 64.39 64.25 65.96 64.54 63.89 64.12 63.28 62.64 60.74 59.70 59.64 59.55 57.32 57.29 55.48 48.95 49.99 48.86 51.40 49.01 49.57 49.46 50.69 52.53 55.17 58.55 57.84 56.38 55.53 55.72 56.64 57.20 56.74 56.79 57.88 57.74 58.00 57.34
64.01 63.30 63.16 63.39 64.15 62.55 57.93 57.49 61.75 54.59 57.08 63.99 63.23 61.26 59.41 58.81 58.89 53.53 57.00 58.24 57.33 52.27 54.84 56.36 55.88 55.88 56.14 57.65 58.32 58.14 58.13 58.11 56.97 56.66 56.10 56.62 56.25 56.56 57.29 59.27 59.71 58.97 57.37
64.13 62.34 62.42 63.30 63.74 63.98 61.39 57.67 42.63 42.78 41.03 42.50 51.52 59.35 61.31 50.43 43.23 43.90 45.19 44.82 45.22 46.13 56.06 55.63 55.27 56.12 57.06 58.02 57.97 57.81 57.84 56.20 57.86 57.39 56.94 57.80 57.07 56.81 58.07 59.00 59.79 57.52 55.98
63.91 61.90 63.61 62.84 63.67 63.73 63.06 61.54 58.44 53.02 43.03 41.22 43.52 47.99 49.94 45.33 42.68 43.77 44.31 43.23 41.60 46.69 56.82 56.00 55.82 57.06 57.08 58.35 58.31 58.09 57.65 58.84 59.71 59.47 59.21 58.91 59.17 59.17 56.00 58.53 58.13 57.11 55.68
63.22 54.83 63.51 62.88 63.83 63.01 62.60 61.69 62.01 60.65 60.06 58.40 44.96 45.62 41.74 41.78 41.78 41.96 42.32 46.73 55.43 54.77 58.78 57.61 57.22 57.49 57.54 58.89 59.69 59.47 59.99 60.14 60.18 59.64 59.69 59.78 59.54 59.45 58.42 58.36 57.97 56.70 55.86
63.91 61.95 61.88 64.19 63.80 62.40 62.99 62.51 63.25 62.74 61.02 57.61 54.53 48.28 42.36 39.40 40.15 41.05 41.78 59.81 59.34 58.22 58.90 58.40 58.46 58.40 58.96 60.59 61.01 61.11 60.66 60.54 60.37 60.50 60.65 60.47 60.57 60.51 59.82 58.89 58.31 51.12 52.93
62.91 53.02 56.02 63.92 62.90 61.33 63.67 62.48 62.06 62.82 61.19 60.60 59.58 55.78 52.06 54.16 56.87 56.22 57.99 60.83 60.48 61.11 59.98 60.10 60.16 60.70 61.28 61.30 60.22 60.97 60.90 59.64 61.36 61.09 60.98 61.32 61.54 61.15 60.47 59.45 58.69 58.84 57.78
63.46 59.79 56.30 63.61 62.40 63.52 61.65 62.46 63.88 63.45 61.81 62.30 61.29 57.17 46.47 59.39 58.28 58.66 59.77 61.05 61.97 61.78 61.28 61.60 61.90 62.30 62.26 62.46 61.95 60.36 61.05 61.06 61.46 60.64 60.57 60.88 61.26 60.95 61.83 60.52 60.43 60.26 59.23
63.08 63.78 63.83 62.24 61.93 63.23 63.66 63.71 63.72 63.36 62.06 62.25 61.99 56.17 41.23 61.60 60.12 60.31 60.99 61.68 62.47 63.74 63.80 62.64 62.33 62.34 61.75 61.48 61.27 60.99 60.77 61.43 61.12 61.71 61.27 61.67 61.42 62.06 61.92 61.18 60.59 60.03 59.67
61.87 62.57 62.51 61.26 62.71 57.22 62.46 62.81 63.48 63.82 62.71 62.40 62.07 60.06 59.51 61.17 61.48 62.32 62.30 63.22 62.55 61.20 59.89 60.10 58.59 55.93 55.72 55.25 53.42 53.09 52.94 53.30 57.41 63.28 62.81 62.35 62.19 61.37 61.26 61.02 61.17 60.40 59.77
60.20 62.53 61.69 60.67 62.19 62.69 62.07 63.03 60.90 55.59 59.94 62.31 63.37 62.81 61.89 61.67 61.55 58.79 56.76 56.23 54.93 53.35 53.74 51.56 49.40 46.73 46.14 45.87 46.45 45.95 42.04 40.48 52.27 54.49 60.53 62.65 62.91 59.57 61.13 61.08 61.01 60.67 59.69
54.08 57.58 61.82 59.71 60.47 62.64 62.22 59.85 59.17 59.99 58.36 59.03 59.29 60.38 59.47 57.81 56.95 57.11 57.74 55.85 54.06 51.05 48.69 47.18 47.59 44.68 41.35 41.91 39.73 38.34 34.49 33.29 40.47 37.16 58.84 61.97 62.16 62.66 62.54 62.39 62.34 61.89 61.39
51.44 50.98 50.73 52.18 55.37 54.91 53.33 52.62 52.27 52.77 52.12 51.16 51.73 51.98 52.14 51.53 51.26 51.03 51.53 51.11 50.72 49.42 47.02 43.97 41.72 41.82 40.34 37.73 35.98 33.28 33.29 34.31 39.62 38.21 55.79 55.87 53.38 52.43 53.33 56.83 57.11 57.62 57.61

GFSGL_sfc_wetblb_045.txt.gz
Wetbulb
67.23 67.98 68.53 69.31 69.73 68.62 68.00 67.59 67.53 67.53 67.85 67.98 67.61 66.41 65.81 66.10 65.55 62.76 62.12 62.89 61.85 60.96 61.19 61.38 60.52 60.07 60.28 62.05 59.80 58.71 57.54 56.99 54.18 58.79 59.43 60.76 60.83 61.71 62.76 62.42 62.93 61.31 60.50
68.48 68.33 68.55 69.05 69.91 69.23 68.53 68.85 68.73 67.44 67.90 67.17 66.69 65.94 65.85 64.39 64.30 63.11 62.47 63.02 61.25 60.56 60.46 60.72 60.12 60.61 58.26 61.44 59.75 58.17 57.92 57.88 57.05 57.58 58.94 59.14 60.99 62.05 62.37 61.91 62.28 62.07 61.12
69.41 68.69 68.34 67.73 67.79 67.22 67.39 67.11 67.69 66.40 65.45 65.54 64.43 64.26 64.58 63.55 63.47 63.57 62.53 62.28 61.76 61.19 61.19 59.70 58.80 58.90 57.09 59.73 59.42 58.74 58.50 59.38 59.19 59.23 59.04 60.37 60.53 60.79 59.12 59.82 60.02 60.04 60.20
68.40 67.13 66.03 66.52 66.96 66.52 66.61 66.42 65.90 65.83 64.51 63.60 62.78 63.24 64.44 64.58 64.85 64.19 63.10 61.70 61.18 60.85 60.35 60.12 60.89 60.72 58.43 59.09 60.28 59.07 58.62 59.42 59.45 59.03 58.59 58.11 58.09 58.54 58.44 57.47 56.69 58.30 57.03
66.70 66.78 66.70 66.53 66.57 66.48 66.03 64.96 63.99 62.25 62.00 62.61 63.07 63.38 62.09 61.96 63.32 63.10 62.65 61.76 60.41 59.37 59.26 60.57 61.27 61.41 60.14 61.01 61.12 59.80 58.68 58.97 58.25 57.43 56.95 57.01 56.65 56.89 56.06 56.36 55.66 56.26 56.91
66.74 66.23 66.37 65.51 65.13 64.05 62.84 63.51 62.27 61.98 61.88 62.94 62.05 61.40 60.51 59.65 49.94 55.34 60.30 60.78 60.00 60.50 58.53 59.91 59.91 57.63 57.11 56.95 57.91 58.16 59.90 58.65 56.93 56.49 56.53 56.15 56.63 55.52 56.24 56.15 55.85 55.52 52.94
65.88 65.64 65.47 64.58 63.66 63.87 62.08 61.95 62.35 62.02 62.34 62.94 62.70 60.91 58.12 55.18 48.67 51.39 57.39 60.27 59.59 59.37 58.43 59.60 60.59 61.75 58.82 57.50 53.85 54.81 55.34 54.19 56.89 57.57 56.70 56.93 55.70 56.57 56.93 56.09 56.49 55.78 54.70
64.05 63.61 62.54 63.11 61.68 61.38 62.14 61.81 62.21 62.02 61.96 63.20 62.67 60.36 56.61 54.69 49.21 51.60 54.47 60.43 59.91 60.10 59.68 59.73 59.80 59.72 59.24 59.95 60.50 59.46 58.22 57.62 57.20 58.42 57.10 57.54 57.42 58.17 58.22 57.84 56.09 56.17 56.61
61.37 61.68 61.92 61.88 61.52 62.38 61.67 61.74 62.44 61.32 60.10 60.51 61.30 58.92 56.39 55.44 48.31 50.84 57.27 59.39 59.23 59.13 58.89 57.89 59.41 59.12 47.71 52.30 59.63 58.09 57.86 56.85 52.33 51.91 51.50 49.93 48.54 49.90 54.47 56.84 55.39 54.78 53.90
61.55 62.21 62.53 63.24 62.30 62.08 62.18 62.38 61.85 60.35 61.01 61.95 61.42 59.65 54.17 55.28 46.86 53.02 58.16 58.88 58.48 58.36 58.17 57.77 48.49 55.47 47.58 49.58 60.05 58.73 56.53 56.55 56.05 55.06 53.96 50.69 52.04 51.33 50.75 56.99 56.93 54.51 54.33
62.66 62.34 61.76 61.83 61.82 62.34 62.38 62.20 60.23 60.26 60.84 60.92 59.65 58.29 57.57 55.74 53.55 50.28 52.74 59.15 58.83 58.11 57.39 55.96 52.98 44.32 46.86 48.13 53.32 59.38 56.58 56.84 53.60 56.74 57.25 57.07 56.75 56.84 57.76 56.94 55.78 56.10 53.80
61.99 62.00 62.01 62.40 62.78 62.66 62.03 60.88 60.90 60.38 60.71 60.04 59.62 59.90 59.45 57.93 50.44 49.46 49.39 53.13 54.44 58.31 57.37 54.68 50.98 43.05 44.14 46.31 51.35 44.86 47.40 53.00 57.59 56.97 56.59 56.21 56.25 56.57 57.02 56.45 55.51 55.29 56.92
61.26 61.21 61.50 60.92 61.48 61.42 59.56 61.04 59.56 60.74 60.29 58.79 58.76 58.33 57.99 57.09 51.29 44.00 44.85 48.49 51.01 57.08 57.19 49.85 42.87 42.51 43.59 45.57 43.96 44.86 50.23 57.15 56.53 55.85 55.42 55.77 56.51 56.61 57.18 57.31 57.36 57.39 57.38
60.87 61.64 61.29 62.23 61.48 60.38 61.14 60.89 59.46 59.89 59.88 60.00 58.53 57.27 57.67 56.75 53.87 54.18 53.22 51.81 47.67 49.71 48.02 50.69 49.72 48.85 48.98 49.78 53.05 55.03 57.26 56.92 56.14 55.57 55.49 56.15 56.61 56.36 56.17 57.06 55.59 53.79 54.00
61.24 61.07 60.75 61.07 58.01 55.56 53.37 54.75 59.02 56.57 57.83 60.95 59.07 58.26 57.46 57.49 55.71 54.66 54.02 55.77 55.11 52.42 54.66 56.39 55.79 55.81 55.35 55.99 56.81 57.20 56.91 56.48 55.81 56.06 56.05 55.69 55.91 55.93 55.85 56.81 56.83 54.96 53.31
59.73 60.83 61.61 61.58 59.37 56.93 55.87 53.80 42.13 42.45 41.76 46.31 51.64 56.39 56.03 49.72 44.13 47.18 43.96 44.68 44.32 46.68 55.53 55.31 54.93 55.27 55.61 56.53 56.29 56.13 56.53 55.10 55.85 56.38 56.31 56.00 55.67 55.73 56.48 57.42 58.23 56.03 54.16
59.24 58.83 59.68 60.42 59.67 58.09 57.21 56.70 54.56 49.72 42.85 40.84 43.16 46.11 47.04 44.47 43.18 43.59 43.05 42.87 42.32 50.32 55.67 55.69 55.41 55.83 56.25 57.16 55.32 56.57 56.18 56.87 56.09 55.51 55.17 57.03 56.49 56.55 54.34 57.17 57.23 57.25 54.62
59.94 53.86 60.44 60.64 60.69 59.84 58.26 57.84 58.41 57.48 55.75 53.31 43.64 43.58 41.89 42.31 42.32 41.60 41.24 46.46 54.34 53.58 56.16 55.31 55.13 55.65 56.36 57.04 56.13 55.75 55.75 56.65 56.35 56.44 56.84 57.72 57.90 57.37 56.99 56.84 56.39 55.23 54.29
60.61 60.17 61.06 61.69 60.45 59.52 60.05 58.45 58.83 57.47 54.50 52.23 51.34 46.82 41.94 39.77 40.15 40.33 41.42 56.98 57.31 57.12 56.60 56.43 56.46 56.69 57.01 57.02 57.42 56.97 57.06 57.44 57.22 57.45 57.85 58.02 58.00 57.03 56.29 56.23 55.25 50.16 50.33
59.76 53.24 57.19 59.73 59.32 59.37 60.12 60.18 58.38 56.84 55.70 56.49 55.93 52.89 51.27 52.22 51.43 50.74 52.93 57.43 58.49 57.83 57.99 57.68 57.28 57.38 56.98 57.29 58.39 58.83 58.29 55.61 57.09 57.49 58.62 58.63 57.52 57.42 56.73 56.36 55.14 55.53 54.33
61.59 61.03 54.89 60.08 58.94 60.43 60.89 60.03 59.43 58.51 57.69 56.80 55.75 53.82 44.85 56.35 54.46 54.03 54.79 58.00 58.34 58.23 59.37 57.52 57.10 57.47 58.74 59.54 59.62 59.71 59.17 58.90 59.56 59.92 59.90 59.12 58.33 57.48 57.87 57.67 58.94 59.07 57.31
60.12 60.52 59.31 60.99 60.97 59.29 59.64 60.70 60.20 59.41 59.40 57.43 56.39 52.39 36.52 56.78 56.38 56.38 56.92 58.37 59.21 57.83 58.78 58.72 57.36 55.60 56.73 55.91 57.65 59.16 59.65 59.50 60.00 59.95 59.71 59.54 59.71 59.67 58.98 57.72 57.72 56.38 56.06
59.34 59.59 60.72 60.73 59.85 55.23 58.56 59.94 59.96 59.43 59.50 58.29 57.32 55.25 53.04 58.49 57.93 58.34 56.01 53.68 51.85 50.09 49.91 48.77 48.34 47.04 46.65 47.59 46.78 46.31 48.58 49.24 51.00 54.15 56.87 59.88 60.01 59.63 59.98 59.69 59.86 59.12 58.46
60.57 60.72 60.39 60.37 59.52 59.51 59.08 58.52 57.21 53.70 59.00 58.72 58.48 59.79 57.02 55.31 53.84 51.68 49.86 48.21 46.93 47.41 45.00 43.33 42.20 41.56 41.65 41.50 41.54 41.58 40.48 41.94 45.80 52.43 56.74 60.64 59.67 56.55 58.97 59.28 59.28 59.41 59.22
53.62 57.43 58.13 56.73 56.71 56.03 55.43 55.41 54.50 56.63 58.81 58.30 56.68 54.04 52.98 53.96 51.81 49.76 46.97 45.26 43.74 42.30 41.41 41.86 40.14 38.19 38.11 38.19 38.31 38.11 34.78 33.52 39.51 40.13 51.68 52.39 50.74 53.18 54.99 53.32 55.04 54.17 53.20
48.96 48.77 50.80 52.52 50.83 49.35 49.39 48.80 46.90 47.23 47.88 47.11 46.92 46.11 45.42 44.94 46.36 46.00 44.65 42.95 41.11 39.09 37.87 37.03 37.08 36.69 36.31 36.01 35.44 33.32 33.10 33.79 38.58 36.45 45.89 45.56 45.82 45.37 47.43 47.60 47.72 46.57 46.44

GFSGL_sfc_wetblb_048.txt.gz
Wetbulb
62.45 63.73 65.27 66.32 66.79 66.69 66.31 66.09 65.77 65.39 65.86 66.00 66.45 66.11 66.66 66.05 65.61 64.29 62.26 62.09 61.17 60.12 59.87 60.05 59.57 59.03 58.29 59.01 60.01 59.49 56.28 54.96 52.38 55.50 57.32 59.19 59.93 60.19 62.25 61.87 61.75 61.50 60.54
64.17 65.09 65.85 67.62 66.65 66.00 65.79 66.07 66.11 65.91 67.03 67.06 67.19 66.85 66.42 65.45 64.46 61.96 61.13 62.18 60.48 59.47 59.39 59.54 59.51 60.68 59.70 59.47 60.21 57.74 56.30 56.06 55.28 53.95 56.42 59.15 59.23 61.12 61.42 60.39 61.15 61.85 61.24
66.23 66.48 67.01 67.93 66.99 66.76 66.85 67.03 66.90 66.83 66.59 67.27 66.98 65.97 65.50 64.84 62.89 62.18 61.97 61.24 60.35 59.62 59.45 60.07 59.59 59.30 57.20 59.23 58.72 57.66 57.10 57.78 57.00 56.74 58.31 59.72 59.76 60.58 59.86 59.88 59.86 59.52 60.22
67.58 66.90 66.47 67.50 67.21 67.17 66.81 67.03 66.74 66.90 65.83 65.75 64.86 64.52 63.29 63.00 62.92 62.81 61.69 60.68 60.00 59.82 59.94 59.94 59.44 59.29 58.79 58.24 58.58 57.66 57.10 57.65 58.27 58.37 58.61 57.91 57.75 58.55 59.31 58.19 57.20 57.67 57.02
66.45 65.82 65.18 65.43 65.42 65.36 65.16 65.74 65.59 65.43 64.36 62.90 61.31 61.32 62.39 63.98 63.72 62.93 61.46 60.15 58.92 58.35 59.05 59.42 60.23 60.45 60.20 58.14 59.55 57.99 58.43 58.47 58.88 57.79 57.30 57.18 56.66 57.06 56.92 56.72 56.26 56.48 56.90
65.50 64.95 65.34 64.99 65.71 65.00 64.66 63.25 62.05 61.42 61.09 61.62 59.94 60.05 60.29 60.65 50.46 53.54 58.75 59.17 58.67 58.63 58.73 59.40 60.87 58.94 57.89 55.71 56.84 56.44 58.29 58.26 57.94 57.16 56.46 56.88 56.48 55.78 56.80 56.88 56.24 56.00 54.00
65.16 65.36 65.51 65.24 64.38 63.46 62.73 62.04 59.94 59.33 59.60 59.59 59.90 59.63 58.12 55.66 47.74 49.91 54.63 59.17 58.79 58.69 58.26 58.15 60.15 60.91 58.58 58.65 53.12 54.22 52.85 53.06 56.56 58.17 56.76 56.94 55.94 56.56 57.12 56.68 56.72 55.05 54.55
64.84 65.06 64.64 64.34 63.28 61.48 61.46 60.57 59.53 60.95 61.36 60.65 59.58 58.29 55.84 53.88 47.56 49.33 52.81 58.99 58.69 59.02 59.03 59.29 59.19 59.30 58.04 58.98 59.15 58.15 56.62 57.00 57.71 57.67 56.78 55.96 55.34 57.30 57.73 57.44 56.79 55.88 56.54
63.83 64.03 64.08 63.04 60.90 60.14 59.55 60.48 60.92 62.20 62.20 60.43 58.09 55.82 54.97 55.10 47.56 49.37 55.19 58.26 57.69 57.45 57.36 59.10 59.52 58.00 47.74 49.73 58.69 57.40 56.16 56.00 51.25 51.07 51.29 49.19 48.46 50.00 53.79 56.82 55.78 55.34 53.87
61.54 61.39 60.71 61.25 60.61 59.71 61.12 61.09 61.44 61.08 60.13 59.44 57.78 56.26 52.90 56.16 46.83 48.46 54.61 57.28 57.20 57.26 57.14 56.20 49.55 54.42 45.93 47.92 58.67 57.38 55.80 55.24 54.59 54.82 53.79 50.15 51.08 51.23 50.79 58.13 56.63 55.05 54.06
61.31 60.67 60.57 61.07 61.82 62.02 61.62 61.43 60.85 60.15 59.93 58.63 57.06 55.86 55.39 56.52 53.11 47.92 50.64 58.92 58.29 57.04 56.82 54.79 52.16 45.20 44.29 47.01 51.72 58.32 55.86 55.60 53.35 56.28 56.18 56.24 55.94 55.84 56.34 57.12 57.49 56.99 54.97
61.10 61.06 60.49 60.37 61.83 62.37 61.43 60.87 60.67 59.75 58.35 57.61 57.62 56.88 56.64 56.36 49.19 47.92 48.83 51.87 53.55 56.74 56.42 54.83 51.27 43.57 44.11 46.29 51.54 44.29 45.56 52.09 57.32 56.68 56.32 55.72 55.80 56.24 56.46 56.08 56.26 56.63 57.24
60.22 59.80 60.70 60.45 60.46 61.82 60.51 58.94 59.55 59.57 58.69 57.96 57.36 55.78 56.06 55.18 51.99 45.02 45.93 47.19 50.09 56.56 56.18 48.77 41.92 41.76 42.48 44.64 43.21 44.29 48.79 57.12 56.80 56.10 55.50 55.56 56.52 56.78 56.94 56.24 56.04 56.55 56.96
59.54 59.81 59.92 59.51 59.11 59.08 60.27 60.04 59.93 59.01 58.25 57.70 56.90 55.82 55.55 54.67 52.34 52.88 52.12 51.59 47.68 49.60 47.61 50.13 49.01 47.92 48.28 49.06 52.98 54.66 57.52 57.37 56.78 56.04 55.80 56.14 56.16 56.54 56.18 56.68 55.38 55.27 55.17
59.06 59.79 59.54 59.33 57.57 54.80 51.21 53.14 58.43 57.30 58.04 58.41 57.24 57.04 55.98 53.75 52.66 51.46 52.47 54.95 55.12 52.00 53.65 56.08 55.98 55.96 55.60 56.14 56.58 56.42 56.30 56.30 55.94 56.24 56.02 55.86 55.82 55.86 55.90 56.94 56.10 54.71 54.04
59.69 59.46 58.32 56.88 56.92 55.41 53.50 50.41 41.18 42.45 45.56 47.38 49.69 55.05 55.92 48.33 44.66 43.39 43.02 43.75 43.93 45.56 55.46 55.34 55.13 55.34 55.60 55.68 55.82 55.66 55.70 54.38 56.04 56.28 56.22 56.04 55.55 55.53 55.65 56.30 57.12 54.89 53.47
59.36 59.62 58.31 57.14 56.52 55.66 55.52 55.52 52.78 47.54 42.61 41.76 44.47 44.47 46.29 43.91 42.30 41.94 42.66 41.94 42.66 49.65 55.78 55.35 54.92 55.26 55.80 56.04 55.78 55.88 55.50 56.02 56.52 56.50 56.24 56.08 55.80 55.65 53.89 55.88 56.25 56.14 53.95
58.65 55.05 59.07 58.28 57.36 56.38 56.22 56.30 56.76 57.14 55.56 52.53 43.10 43.03 40.83 41.39 41.39 41.39 41.94 47.79 55.16 53.70 56.06 55.41 55.60 56.02 56.64 54.92 54.09 55.86 56.48 56.14 54.22 55.27 56.08 56.12 55.84 55.87 55.70 56.25 56.35 54.62 54.50
59.19 59.39 60.03 59.43 58.23 56.38 57.18 57.20 56.32 55.88 54.06 51.23 50.08 45.35 40.80 38.82 39.38 40.12 41.94 56.51 55.86 55.49 55.18 54.74 55.47 55.88 55.24 55.44 54.88 54.82 54.86 55.48 55.04 55.10 56.42 57.30 57.41 56.48 56.12 56.41 56.27 48.57 49.62
59.15 52.34 56.75 59.23 58.36 57.76 57.60 56.88 55.54 55.38 55.38 55.63 55.11 51.89 48.76 50.48 52.65 53.33 54.28 56.92 57.40 56.64 56.28 56.27 56.75 56.85 55.20 55.54 55.88 55.84 55.80 55.46 56.78 57.04 57.07 57.37 57.56 57.38 55.86 55.31 54.83 54.25 53.13
58.64 57.44 53.05 59.82 58.81 58.98 58.55 56.86 56.00 55.99 56.17 56.10 55.01 52.53 42.30 53.84 52.81 52.31 54.53 57.52 58.37 58.04 57.50 57.00 57.05 56.99 57.43 57.92 58.20 58.15 57.62 56.99 57.60 58.04 58.40 58.20 57.74 56.06 56.22 56.06 56.33 55.87 55.58
61.09 59.04 59.39 59.11 59.73 59.73 58.72 57.79 57.22 56.61 55.92 55.29 55.39 48.17 38.49 55.76 55.74 56.57 56.48 54.00 52.83 53.78 57.44 55.55 51.00 50.13 50.88 52.16 52.30 58.66 59.08 59.19 58.41 58.78 59.39 59.42 57.92 57.34 57.28 56.48 56.42 56.16 56.80
58.67 58.95 58.70 58.75 59.49 54.84 59.16 58.73 58.48 57.40 56.74 56.00 55.92 53.72 54.36 55.98 56.02 52.04 49.24 48.30 46.99 45.91 45.25 45.31 45.06 44.03 44.69 44.22 44.51 45.41 48.84 50.01 50.36 51.70 54.53 57.73 59.13 57.94 58.57 58.56 58.64 58.27 57.57
59.54 59.58 57.57 57.28 59.18 58.90 59.56 59.19 57.96 52.63 56.58 56.48 57.18 55.78 52.44 50.56 48.34 45.77 44.64 44.18 43.59 42.79 40.89 41.05 41.33 40.59 40.76 40.45 41.88 41.79 42.50 42.61 45.67 52.62 56.12 55.72 55.29 54.09 55.50 55.76 54.30 53.89 53.61
57.35 55.90 55.46 55.51 55.59 55.55 57.62 58.16 57.40 57.76 57.01 55.12 53.72 51.28 49.03 46.80 44.05 42.95 41.40 40.36 39.18 39.76 39.29 39.38 39.07 38.81 39.81 40.29 39.79 39.15 35.39 35.48 41.99 41.53 49.98 50.14 50.94 50.35 50.39 50.64 49.77 48.53 48.32
50.57 51.11 49.69 49.36 49.07 48.72 50.00 50.07 49.08 49.11 47.45 45.98 45.63 45.69 45.72 44.28 43.08 42.14 40.91 38.88 38.32 38.03 37.38 37.88 37.98 37.35 36.61 36.23 35.21 34.76 34.89 35.35 38.96 35.72 43.94 44.05 43.65 44.25 44.48 45.06 45.16 44.39 44.01